Observation data for Estelline on 12/08/2018      Previous  Date  Next       Current Mesonet Observations  Soil Data  Daily Summary Page  Observations in Plain Language
KES1 080600Z 00009KT M00/M01 A3035 RMK A01 T10011011  RH  093%=      5-min Rain = 0
KES1 080601Z 00008KT M00/M01 A3035 RMK A01 T10011011  RH  093%=      5-min Rain = 0
KES1 080602Z 01009KT M00/M01 A3035 RMK A01 T10011012  RH  093%=      5-min Rain = 0
KES1 080603Z 01007KT M00/M01 A3035 RMK A01 T10011012  RH  092%=      5-min Rain = 0
KES1 080604Z 01008KT M00/M01 A3035 RMK A01 T10011012  RH  092%=      5-min Rain = 0
KES1 080605Z 01007KT M00/M01 A3035 RMK A01 T10011012  RH  093%=      5-min Rain = 0
KES1 080606Z 01008KT M00/M01 A3035 RMK A01 T10011012  RH  093%=      5-min Rain = 0
KES1 080607Z 01009KT M00/M01 A3035 RMK A01 T10021012  RH  093%=      5-min Rain = 0
KES1 080608Z 01007KT M00/M01 A3035 RMK A01 T10011012  RH  093%=      5-min Rain = 0
KES1 080609Z 01008KT M00/M01 A3035 RMK A01 T10011011  RH  093%=      5-min Rain = 0
KES1 080610Z 02009KT M00/M01 A3035 RMK A01 T10021011  RH  093%=      5-min Rain = 0
KES1 080611Z 02009KT M00/M01 A3035 RMK A01 T10021011  RH  093%=      5-min Rain = 0
KES1 080612Z 01010KT M00/M01 A3035 RMK A01 T10021011  RH  093%=      5-min Rain = 0
KES1 080613Z 01008KT M00/M01 A3035 RMK A01 T10021012  RH  093%=      5-min Rain = 0
KES1 080614Z 02007KT M00/M01 A3035 RMK A01 T10021011  RH  093%=      5-min Rain = 0
KES1 080615Z 02009KT M00/M01 A3035 RMK A01 T10021011  RH  094%=      5-min Rain = 0
KES1 080616Z 02010KT M00/M01 A3035 RMK A01 T10021011  RH  094%=      5-min Rain = 0
KES1 080617Z 03010KT M00/M01 A3035 RMK A01 T10021011  RH  094%=      5-min Rain = 0
KES1 080618Z 02009KT M00/M01 A3034 RMK A01 T10021011  RH  094%=      5-min Rain = 0
KES1 080619Z 02010KT M00/M01 A3034 RMK A01 T10031011  RH  094%=      5-min Rain = 0
KES1 080620Z 01009KT M00/M01 A3035 RMK A01 T10031011  RH  094%=      5-min Rain = 0
KES1 080621Z 01011KT M00/M01 A3035 RMK A01 T10031011  RH  094%=      5-min Rain = 0
KES1 080622Z 01010KT M00/M01 A3035 RMK A01 T10031011  RH  094%=      5-min Rain = 0
KES1 080623Z 01009KT M00/M01 A3035 RMK A01 T10031012  RH  094%=      5-min Rain = 0
KES1 080624Z 02010KT M00/M01 A3035 RMK A01 T10031011  RH  094%=      5-min Rain = 0
KES1 080625Z 01012KT M00/M01 A3035 RMK A01 T10031012  RH  094%=      5-min Rain = 0
KES1 080626Z 02010KT M00/M01 A3035 RMK A01 T10031012  RH  094%=      5-min Rain = 0
KES1 080627Z 01010KT M00/M01 A3035 RMK A01 T10031012  RH  094%=      5-min Rain = 0
KES1 080628Z 02011KT M00/M01 A3035 RMK A01 T10031012  RH  094%=      5-min Rain = 0
KES1 080629Z 02010KT M00/M01 A3034 RMK A01 T10031012  RH  094%=      5-min Rain = 0
KES1 080630Z 02009KT M00/M01 A3034 RMK A01 T10031012  RH  094%=      5-min Rain = 0
KES1 080631Z 02007KT M00/M01 A3034 RMK A01 T10041012  RH  094%=      5-min Rain = 0
KES1 080632Z 03008KT M00/M01 A3034 RMK A01 T10031011  RH  094%=      5-min Rain = 0
KES1 080633Z 02008KT M00/M01 A3034 RMK A01 T10031011  RH  095%=      5-min Rain = 0
KES1 080634Z 03008KT M00/M01 A3034 RMK A01 T10031011  RH  095%=      5-min Rain = 0
KES1 080635Z 02009KT M00/M01 A3034 RMK A01 T10031011  RH  095%=      5-min Rain = 0.01
KES1 080636Z 02009KT M00/M01 A3034 RMK A01 T10031011  RH  095%=      5-min Rain = 0
KES1 080637Z 02009KT M00/M01 A3034 RMK A01 T10041011  RH  095%=      5-min Rain = 0
KES1 080638Z 02009KT M00/M01 A3034 RMK A01 T10041011  RH  095%=      5-min Rain = 0
KES1 080639Z 02007KT M00/M01 A3034 RMK A01 T10041011  RH  095%=      5-min Rain = 0
KES1 080640Z 02006KT M00/M01 A3034 RMK A01 T10041011  RH  095%=      5-min Rain = 0
KES1 080641Z 02007KT M00/M01 A3034 RMK A01 T10041010  RH  096%=      5-min Rain = 0
KES1 080642Z 03006KT M00/M01 A3034 RMK A01 T10041010  RH  096%=      5-min Rain = 0
KES1 080643Z 03006KT M00/M01 A3033 RMK A01 T10041010  RH  096%=      5-min Rain = 0
KES1 080644Z 02008KT M00/M01 A3033 RMK A01 T10041009  RH  096%=      5-min Rain = 0
KES1 080645Z 03007KT M00/M01 A3033 RMK A01 T10041010  RH  096%=      5-min Rain = 0
KES1 080646Z 03008KT M00/M01 A3033 RMK A01 T10041010  RH  096%=      5-min Rain = 0
KES1 080647Z 03007KT M00/M01 A3033 RMK A01 T10041009  RH  096%=      5-min Rain = 0
KES1 080648Z 03008KT M00/M01 A3033 RMK A01 T10041009  RH  096%=      5-min Rain = 0
KES1 080649Z 03007KT M00/M01 A3033 RMK A01 T10041009  RH  096%=      5-min Rain = 0
KES1 080650Z 03007KT M00/M01 A3033 RMK A01 T10041009  RH  096%=      5-min Rain = 0
KES1 080651Z 03008KT M00/M01 A3033 RMK A01 T10041009  RH  096%=      5-min Rain = 0
KES1 080652Z 03007KT M00/M01 A3033 RMK A01 T10041009  RH  096%=      5-min Rain = 0
KES1 080653Z 03007KT M00/M01 A3033 RMK A01 T10041009  RH  096%=      5-min Rain = 0
KES1 080654Z 03007KT M00/M01 A3033 RMK A01 T10041009  RH  097%=      5-min Rain = 0
KES1 080655Z 03010KT M00/M01 A3033 RMK A01 T10041008  RH  097%=      5-min Rain = 0
KES1 080656Z 02009KT M00/M01 A3033 RMK A01 T10041009  RH  097%=      5-min Rain = 0
KES1 080657Z 02008KT M00/M01 A3033 RMK A01 T10041009  RH  097%=      5-min Rain = 0
KES1 080658Z 02008KT M00/M01 A3033 RMK A01 T10041009  RH  097%=      5-min Rain = 0
KES1 080659Z 02009KT M00/M01 A3033 RMK A01 T10041009  RH  097%=      5-min Rain = 0
KES1 080700Z 03006KT M00/M01 A3033 RMK A01 T10041009  RH  097%=      5-min Rain = 0
KES1 080701Z 03006KT M00/M01 A3033 RMK A01 T10041009  RH  097%=      5-min Rain = 0
KES1 080702Z 03006KT M00/M01 A3033 RMK A01 T10041009  RH  097%=      5-min Rain = 0
KES1 080703Z 03005KT M00/M01 A3033 RMK A01 T10041009  RH  097%=      5-min Rain = 0
KES1 080704Z 02006KT M00/M01 A3033 RMK A01 T10041008  RH  097%=      5-min Rain = 0
KES1 080705Z 03007KT M00/M01 A3033 RMK A01 T10041008  RH  097%=      5-min Rain = 0
KES1 080706Z 03008KT M00/M01 A3033 RMK A01 T10041008  RH  097%=      5-min Rain = 0
KES1 080707Z 02007KT M00/M01 A3033 RMK A01 T10041008  RH  097%=      5-min Rain = 0
KES1 080708Z 02006KT M00/M01 A3033 RMK A01 T10041008  RH  097%=      5-min Rain = 0
KES1 080709Z 02007KT M00/M01 A3033 RMK A01 T10041008  RH  097%=      5-min Rain = 0
KES1 080710Z 02007KT M00/M01 A3033 RMK A01 T10041008  RH  097%=      5-min Rain = 0
KES1 080711Z 02007KT M00/M01 A3033 RMK A01 T10031008  RH  097%=      5-min Rain = 0
KES1 080712Z 02006KT M00/M01 A3033 RMK A01 T10031008  RH  097%=      5-min Rain = 0
KES1 080713Z 02006KT M00/M01 A3033 RMK A01 T10031007  RH  097%=      5-min Rain = 0
KES1 080714Z 01005KT M00/M01 A3033 RMK A01 T10031008  RH  097%=      5-min Rain = 0
KES1 080715Z 01004KT M00/M01 A3033 RMK A01 T10031007  RH  097%=      5-min Rain = 0
KES1 080716Z 01005KT M00/M01 A3033 RMK A01 T10031007  RH  097%=      5-min Rain = 0
KES1 080717Z 01008KT M00/M01 A3033 RMK A01 T10031007  RH  097%=      5-min Rain = 0
KES1 080718Z 01007KT M00/M01 A3033 RMK A01 T10031007  RH  097%=      5-min Rain = 0
KES1 080719Z 02007KT M00/M01 A3033 RMK A01 T10031007  RH  097%=      5-min Rain = 0
KES1 080720Z 02007KT M00/M01 A3033 RMK A01 T10031007  RH  097%=      5-min Rain = 0
KES1 080721Z 01006KT M00/M01 A3033 RMK A01 T10031007  RH  097%=      5-min Rain = 0
KES1 080722Z 02006KT M00/M01 A3033 RMK A01 T10031007  RH  097%=      5-min Rain = 0
KES1 080723Z 02007KT M00/M01 A3033 RMK A01 T10031007  RH  097%=      5-min Rain = 0
KES1 080724Z 01007KT M00/M01 A3033 RMK A01 T10031007  RH  097%=      5-min Rain = 0
KES1 080725Z 02007KT M00/M01 A3033 RMK A01 T10031007  RH  097%=      5-min Rain = 0
KES1 080726Z 01006KT M00/M01 A3033 RMK A01 T10031007  RH  097%=      5-min Rain = 0
KES1 080727Z 01007KT M00/M01 A3033 RMK A01 T10021006  RH  097%=      5-min Rain = 0
KES1 080728Z 01007KT M00/M01 A3033 RMK A01 T10031006  RH  097%=      5-min Rain = 0
KES1 080729Z 01006KT M00/M01 A3033 RMK A01 T10021006  RH  097%=      5-min Rain = 0
KES1 080730Z 01008KT M00/M01 A3033 RMK A01 T10021006  RH  097%=      5-min Rain = 0
KES1 080731Z 01010KT M00/M01 A3033 RMK A01 T10021006  RH  097%=      5-min Rain = 0
KES1 080732Z 01009KT M00/M01 A3033 RMK A01 T10021006  RH  097%=      5-min Rain = 0
KES1 080733Z 02009KT M00/M01 A3033 RMK A01 T10021006  RH  097%=      5-min Rain = 0
KES1 080734Z 02010KT M00/M01 A3033 RMK A01 T10021006  RH  097%=      5-min Rain = 0
KES1 080735Z 02009KT M00/M01 A3033 RMK A01 T10021006  RH  097%=      5-min Rain = 0
KES1 080736Z 01008KT M00/M01 A3033 RMK A01 T10021006  RH  097%=      5-min Rain = 0
KES1 080737Z 01009KT M00/M01 A3033 RMK A01 T10021006  RH  097%=      5-min Rain = 0
KES1 080738Z 01008KT M00/M01 A3033 RMK A01 T10021006  RH  097%=      5-min Rain = 0
KES1 080739Z 01007KT M00/M01 A3033 RMK A01 T10021006  RH  097%=      5-min Rain = 0
KES1 080740Z 01007KT M00/M01 A3033 RMK A01 T10021006  RH  097%=      5-min Rain = 0
KES1 080741Z 00007KT M00/M01 A3033 RMK A01 T10021006  RH  097%=      5-min Rain = 0
KES1 080742Z 01009KT M00/M01 A3033 RMK A01 T10021006  RH  097%=      5-min Rain = 0
KES1 080743Z 01008KT M00/M01 A3033 RMK A01 T10021006  RH  097%=      5-min Rain = 0
KES1 080744Z 01008KT M00/M01 A3033 RMK A01 T10011006  RH  097%=      5-min Rain = 0
KES1 080745Z 01007KT M00/M01 A3033 RMK A01 T10021006  RH  097%=      5-min Rain = 0
KES1 080746Z 01007KT M00/M01 A3033 RMK A01 T10011006  RH  097%=      5-min Rain = 0
KES1 080747Z 01008KT M00/M01 A3033 RMK A01 T10011006  RH  097%=      5-min Rain = 0
KES1 080748Z 01007KT M00/M01 A3033 RMK A01 T10021006  RH  097%=      5-min Rain = 0
KES1 080749Z 01008KT M00/M01 A3033 RMK A01 T10021006  RH  097%=      5-min Rain = 0
KES1 080750Z 01009KT M00/M01 A3033 RMK A01 T10011006  RH  097%=      5-min Rain = 0
KES1 080751Z 01010KT M00/M01 A3033 RMK A01 T10021006  RH  097%=      5-min Rain = 0
KES1 080752Z 01010KT M00/M01 A3033 RMK A01 T10021007  RH  097%=      5-min Rain = 0
KES1 080753Z 02009KT M00/M01 A3033 RMK A01 T10021007  RH  097%=      5-min Rain = 0
KES1 080754Z 02008KT M00/M01 A3033 RMK A01 T10021007  RH  096%=      5-min Rain = 0
KES1 080755Z 02009KT M00/M01 A3033 RMK A01 T10021007  RH  096%=      5-min Rain = 0
KES1 080756Z 02008KT M00/M01 A3033 RMK A01 T10021007  RH  096%=      5-min Rain = 0
KES1 080757Z 01009KT M00/M01 A3033 RMK A01 T10021007  RH  096%=      5-min Rain = 0
KES1 080758Z 00008KT M00/M01 A3033 RMK A01 T10021007  RH  096%=      5-min Rain = 0
KES1 080759Z 01011G16KT M00/M01 A3034 RMK A01 T10021007  RH  096%=      5-min Rain = 0
KES1 080800Z 02012KT M00/M01 A3034 RMK A01 T10031009  RH  096%=      5-min Rain = 0
KES1 080801Z 02010KT M00/M01 A3034 RMK A01 T10041010  RH  095%=      5-min Rain = 0
KES1 080802Z 02010KT M00/M01 A3034 RMK A01 T10041012  RH  095%=      5-min Rain = 0
KES1 080803Z 02008KT M00/M01 A3034 RMK A01 T10041012  RH  094%=      5-min Rain = 0
KES1 080804Z 02008KT M00/M01 A3034 RMK A01 T10041012  RH  094%=      5-min Rain = 0
KES1 080805Z 02009KT M00/M01 A3033 RMK A01 T10041012  RH  094%=      5-min Rain = 0
KES1 080806Z 02008KT M00/M01 A3033 RMK A01 T10041012  RH  094%=      5-min Rain = 0
KES1 080807Z 02009KT M00/M01 A3033 RMK A01 T10041012  RH  095%=      5-min Rain = 0
KES1 080808Z 02009KT M00/M01 A3033 RMK A01 T10041012  RH  095%=      5-min Rain = 0
KES1 080809Z 01007KT M00/M01 A3033 RMK A01 T10041012  RH  095%=      5-min Rain = 0
KES1 080810Z 02008KT M00/M01 A3033 RMK A01 T10041012  RH  095%=      5-min Rain = 0
KES1 080811Z 02009KT M00/M01 A3033 RMK A01 T10041012  RH  095%=      5-min Rain = 0
KES1 080812Z 02007KT M01/M01 A3033 RMK A01 T10051012  RH  095%=      5-min Rain = 0
KES1 080813Z 02008KT M01/M01 A3033 RMK A01 T10051012  RH  095%=      5-min Rain = 0
KES1 080814Z 02008KT M01/M01 A3033 RMK A01 T10051012  RH  095%=      5-min Rain = 0
KES1 080815Z 02007KT M01/M01 A3033 RMK A01 T10051012  RH  095%=      5-min Rain = 0
KES1 080816Z 02007KT M01/M01 A3033 RMK A01 T10051012  RH  095%=      5-min Rain = 0
KES1 080817Z 02008KT M01/M01 A3033 RMK A01 T10051012  RH  095%=      5-min Rain = 0
KES1 080818Z 02008KT M01/M01 A3033 RMK A01 T10051011  RH  095%=      5-min Rain = 0
KES1 080819Z 02007KT M01/M01 A3033 RMK A01 T10051011  RH  095%=      5-min Rain = 0
KES1 080820Z 02008KT M00/M01 A3033 RMK A01 T10041011  RH  095%=      5-min Rain = 0
KES1 080821Z 01008KT M01/M01 A3033 RMK A01 T10051011  RH  096%=      5-min Rain = 0
KES1 080822Z 02008KT M01/M01 A3033 RMK A01 T10051011  RH  096%=      5-min Rain = 0
KES1 080823Z 02007KT M01/M01 A3033 RMK A01 T10051011  RH  096%=      5-min Rain = 0
KES1 080824Z 01007KT M01/M01 A3033 RMK A01 T10051011  RH  096%=      5-min Rain = 0
KES1 080825Z 02008KT M01/M01 A3033 RMK A01 T10051011  RH  096%=      5-min Rain = 0
KES1 080826Z 02007KT M01/M01 A3033 RMK A01 T10051011  RH  096%=      5-min Rain = 0
KES1 080827Z 02006KT M01/M01 A3033 RMK A01 T10051011  RH  096%=      5-min Rain = 0
KES1 080828Z 02007KT M01/M01 A3033 RMK A01 T10051011  RH  096%=      5-min Rain = 0
KES1 080829Z 02007KT M01/M01 A3033 RMK A01 T10051010  RH  096%=      5-min Rain = 0
KES1 080830Z 02006KT M01/M01 A3033 RMK A01 T10051011  RH  096%=      5-min Rain = 0
KES1 080831Z 02006KT M01/M01 A3033 RMK A01 T10051010  RH  096%=      5-min Rain = 0
KES1 080832Z 02006KT M01/M01 A3033 RMK A01 T10051010  RH  096%=      5-min Rain = 0
KES1 080833Z 02006KT M01/M01 A3033 RMK A01 T10051010  RH  096%=      5-min Rain = 0
KES1 080834Z 02007KT M01/M01 A3033 RMK A01 T10051010  RH  096%=      5-min Rain = 0
KES1 080835Z 02005KT M01/M01 A3033 RMK A01 T10051010  RH  096%=      5-min Rain = 0
KES1 080836Z 02006KT M01/M01 A3033 RMK A01 T10051010  RH  096%=      5-min Rain = 0
KES1 080837Z 01007KT M00/M01 A3033 RMK A01 T10041009  RH  096%=      5-min Rain = 0
KES1 080838Z 02006KT M00/M01 A3033 RMK A01 T10041009  RH  096%=      5-min Rain = 0
KES1 080839Z 01007KT M01/M01 A3033 RMK A01 T10051010  RH  096%=      5-min Rain = 0
KES1 080840Z 02006KT M01/M01 A3033 RMK A01 T10051010  RH  096%=      5-min Rain = 0
KES1 080841Z 01005KT M00/M01 A3033 RMK A01 T10041010  RH  096%=      5-min Rain = 0
KES1 080842Z 01006KT M00/M01 A3033 RMK A01 T10041010  RH  096%=      5-min Rain = 0
KES1 080843Z 01007KT M00/M01 A3033 RMK A01 T10041010  RH  096%=      5-min Rain = 0
KES1 080844Z 01007KT M00/M01 A3033 RMK A01 T10041011  RH  096%=      5-min Rain = 0
KES1 080845Z 01006KT M00/M01 A3033 RMK A01 T10041011  RH  095%=      5-min Rain = 0
KES1 080846Z 01007KT M00/M01 A3033 RMK A01 T10041011  RH  095%=      5-min Rain = 0
KES1 080847Z 01007KT M00/M01 A3033 RMK A01 T10041012  RH  095%=      5-min Rain = 0
KES1 080848Z 01007KT M00/M01 A3033 RMK A01 T10041012  RH  094%=      5-min Rain = 0
KES1 080849Z 01009KT M00/M01 A3033 RMK A01 T10041013  RH  094%=      5-min Rain = 0
KES1 080850Z 02006KT M00/M01 A3033 RMK A01 T10041014  RH  093%=      5-min Rain = 0
KES1 080851Z 02009KT M00/M01 A3033 RMK A01 T10041014  RH  093%=      5-min Rain = 0
KES1 080852Z 02006KT M01/M02 A3033 RMK A01 T10051016  RH  092%=      5-min Rain = 0
KES1 080853Z 02006KT M00/M02 A3033 RMK A01 T10041016  RH  092%=      5-min Rain = 0
KES1 080854Z 03008KT M00/M02 A3033 RMK A01 T10041016  RH  092%=      5-min Rain = 0
KES1 080855Z 03009KT M00/M02 A3033 RMK A01 T10041016  RH  092%=      5-min Rain = 0
KES1 080856Z 03008KT M00/M02 A3033 RMK A01 T10041017  RH  091%=      5-min Rain = 0
KES1 080857Z 02007KT M00/M02 A3033 RMK A01 T10041017  RH  091%=      5-min Rain = 0
KES1 080858Z 03007KT M00/M02 A3033 RMK A01 T10041017  RH  091%=      5-min Rain = 0
KES1 080859Z 02009KT M00/M02 A3033 RMK A01 T10041017  RH  091%=      5-min Rain = 0
KES1 080900Z 02007KT M00/M02 A3033 RMK A01 T10041018  RH  090%=      5-min Rain = 0
KES1 080901Z 02006KT M00/M02 A3033 RMK A01 T10041018  RH  090%=      5-min Rain = 0
KES1 080902Z 02008KT M00/M02 A3033 RMK A01 T10041018  RH  091%=      5-min Rain = 0
KES1 080903Z 03007KT M01/M02 A3033 RMK A01 T10051018  RH  091%=      5-min Rain = 0
KES1 080904Z 02008KT M01/M02 A3033 RMK A01 T10051018  RH  091%=      5-min Rain = 0
KES1 080905Z 02007KT M01/M02 A3033 RMK A01 T10051018  RH  091%=      5-min Rain = 0
KES1 080906Z 02010KT M01/M02 A3033 RMK A01 T10051018  RH  091%=      5-min Rain = 0
KES1 080907Z 02009KT M01/M02 A3033 RMK A01 T10051019  RH  090%=      5-min Rain = 0
KES1 080908Z 02010KT M01/M02 A3033 RMK A01 T10051020  RH  090%=      5-min Rain = 0
KES1 080909Z 02009KT M01/M02 A3033 RMK A01 T10051020  RH  089%=      5-min Rain = 0
KES1 080910Z 01006KT M01/M02 A3033 RMK A01 T10051020  RH  089%=      5-min Rain = 0
KES1 080911Z 02007KT M01/M02 A3033 RMK A01 T10051020  RH  089%=      5-min Rain = 0
KES1 080912Z 02006KT M01/M02 A3032 RMK A01 T10051019  RH  090%=      5-min Rain = 0
KES1 080913Z 02007KT M01/M02 A3032 RMK A01 T10051019  RH  090%=      5-min Rain = 0
KES1 080914Z 02008KT M01/M02 A3033 RMK A01 T10051019  RH  090%=      5-min Rain = 0
KES1 080915Z 03007KT M01/M02 A3033 RMK A01 T10051020  RH  090%=      5-min Rain = 0
KES1 080916Z 02006KT M01/M02 A3033 RMK A01 T10051020  RH  090%=      5-min Rain = 0
KES1 080917Z 02006KT M01/M02 A3033 RMK A01 T10051020  RH  090%=      5-min Rain = 0
KES1 080918Z 02006KT M01/M02 A3033 RMK A01 T10051020  RH  090%=      5-min Rain = 0
KES1 080919Z 03005KT M01/M02 A3033 RMK A01 T10051019  RH  090%=      5-min Rain = 0
KES1 080920Z 03007KT M01/M02 A3033 RMK A01 T10051019  RH  091%=      5-min Rain = 0
KES1 080921Z 03007KT M01/M02 A3032 RMK A01 T10061019  RH  091%=      5-min Rain = 0
KES1 080922Z 03006KT M01/M02 A3032 RMK A01 T10061020  RH  090%=      5-min Rain = 0
KES1 080923Z 03007KT M01/M02 A3032 RMK A01 T10061019  RH  091%=      5-min Rain = 0
KES1 080924Z 04007KT M01/M02 A3032 RMK A01 T10061020  RH  090%=      5-min Rain = 0
KES1 080925Z 03007KT M01/M02 A3032 RMK A01 T10061020  RH  090%=      5-min Rain = 0
KES1 080926Z 03007KT M01/M02 A3032 RMK A01 T10061020  RH  090%=      5-min Rain = 0
KES1 080927Z 03006KT M01/M02 A3032 RMK A01 T10071020  RH  090%=      5-min Rain = 0
KES1 080928Z 04005KT M01/M02 A3032 RMK A01 T10071020  RH  091%=      5-min Rain = 0
KES1 080929Z 03004KT M01/M02 A3032 RMK A01 T10071019  RH  091%=      5-min Rain = 0
KES1 080930Z 03006KT M01/M02 A3032 RMK A01 T10071019  RH  092%=      5-min Rain = 0
KES1 080931Z 04006KT M01/M02 A3032 RMK A01 T10081019  RH  092%=      5-min Rain = 0
KES1 080932Z 04005KT M01/M02 A3032 RMK A01 T10081020  RH  092%=      5-min Rain = 0
KES1 080933Z 04005KT M01/M02 A3032 RMK A01 T10081019  RH  092%=      5-min Rain = 0
KES1 080934Z 04006KT M01/M02 A3032 RMK A01 T10081020  RH  092%=      5-min Rain = 0
KES1 080935Z 03006KT M01/M02 A3032 RMK A01 T10091020  RH  092%=      5-min Rain = 0
KES1 080936Z 03006KT M01/M02 A3032 RMK A01 T10091020  RH  092%=      5-min Rain = 0
KES1 080937Z 03005KT M01/M02 A3032 RMK A01 T10091020  RH  092%=      5-min Rain = 0
KES1 080938Z 03006KT M01/M02 A3032 RMK A01 T10091020  RH  092%=      5-min Rain = 0
KES1 080939Z 03007KT M01/M02 A3032 RMK A01 T10091020  RH  092%=      5-min Rain = 0
KES1 080940Z 03007KT M01/M02 A3032 RMK A01 T10091021  RH  092%=      5-min Rain = 0
KES1 080941Z 03006KT M01/M02 A3032 RMK A01 T10091020  RH  092%=      5-min Rain = 0
KES1 080942Z 03006KT M01/M02 A3032 RMK A01 T10101020  RH  092%=      5-min Rain = 0
KES1 080943Z 03007KT M01/M02 A3032 RMK A01 T10101020  RH  093%=      5-min Rain = 0
KES1 080944Z 03005KT M01/M02 A3032 RMK A01 T10101020  RH  093%=      5-min Rain = 0
KES1 080945Z 02006KT M01/M02 A3032 RMK A01 T10101020  RH  093%=      5-min Rain = 0
KES1 080946Z 02006KT M01/M02 A3032 RMK A01 T10101020  RH  093%=      5-min Rain = 0
KES1 080947Z 02006KT M01/M02 A3032 RMK A01 T10101020  RH  093%=      5-min Rain = 0
KES1 080948Z 02006KT M01/M02 A3032 RMK A01 T10101020  RH  093%=      5-min Rain = 0
KES1 080949Z 02006KT M01/M02 A3032 RMK A01 T10101020  RH  093%=      5-min Rain = 0
KES1 080950Z 02006KT M01/M02 A3032 RMK A01 T10101020  RH  093%=      5-min Rain = 0
KES1 080951Z 02007KT M01/M02 A3032 RMK A01 T10101020  RH  093%=      5-min Rain = 0
KES1 080952Z 02006KT M01/M02 A3032 RMK A01 T10101020  RH  093%=      5-min Rain = 0
KES1 080953Z 03006KT M01/M02 A3031 RMK A01 T10101020  RH  093%=      5-min Rain = 0
KES1 080954Z 02007KT M01/M02 A3031 RMK A01 T10101020  RH  093%=      5-min Rain = 0
KES1 080955Z 02007KT M01/M02 A3031 RMK A01 T10101019  RH  094%=      5-min Rain = 0
KES1 080956Z 02007KT M01/M02 A3031 RMK A01 T10101019  RH  094%=      5-min Rain = 0
KES1 080957Z 02008KT M01/M02 A3031 RMK A01 T10101019  RH  094%=      5-min Rain = 0
KES1 080958Z 02007KT M01/M02 A3031 RMK A01 T10101020  RH  094%=      5-min Rain = 0
KES1 080959Z 02007KT M01/M02 A3031 RMK A01 T10101019  RH  094%=      5-min Rain = 0
KES1 081000Z 02007KT M01/M02 A3031 RMK A01 T10101019  RH  094%=      5-min Rain = 0
KES1 081001Z 02007KT M01/M02 A3031 RMK A01 T10101019  RH  094%=      5-min Rain = 0
KES1 081002Z 02006KT M01/M02 A3031 RMK A01 T10101019  RH  094%=      5-min Rain = 0
KES1 081003Z 02007KT M01/M02 A3031 RMK A01 T10101019  RH  094%=      5-min Rain = 0
KES1 081004Z 02006KT M01/M02 A3031 RMK A01 T10101019  RH  094%=      5-min Rain = 0
KES1 081005Z 02006KT M01/M02 A3031 RMK A01 T10101019  RH  094%=      5-min Rain = 0
KES1 081006Z 02006KT M01/M02 A3031 RMK A01 T10101018  RH  094%=      5-min Rain = 0
KES1 081007Z 02006KT M01/M02 A3031 RMK A01 T10101019  RH  094%=      5-min Rain = 0
KES1 081008Z 02005KT M01/M02 A3031 RMK A01 T10111019  RH  094%=      5-min Rain = 0
KES1 081009Z 02005KT M01/M02 A3031 RMK A01 T10101018  RH  094%=      5-min Rain = 0
KES1 081010Z 01005KT M01/M02 A3031 RMK A01 T10111019  RH  094%=      5-min Rain = 0
KES1 081011Z 01005KT M01/M02 A3031 RMK A01 T10111018  RH  095%=      5-min Rain = 0
KES1 081012Z 01006KT M01/M02 A3031 RMK A01 T10111018  RH  095%=      5-min Rain = 0
KES1 081013Z 01006KT M01/M02 A3031 RMK A01 T10111018  RH  095%=      5-min Rain = 0
KES1 081014Z 01006KT M01/M02 A3031 RMK A01 T10111019  RH  094%=      5-min Rain = 0
KES1 081015Z 01005KT M01/M02 A3031 RMK A01 T10111019  RH  094%=      5-min Rain = 0
KES1 081016Z 01005KT M01/M02 A303 RMK A01 T10111018  RH  095%=      5-min Rain = 0
KES1 081017Z 00006KT M01/M02 A303 RMK A01 T10111018  RH  095%=      5-min Rain = 0
KES1 081018Z 01005KT M01/M02 A303 RMK A01 T10111019  RH  094%=      5-min Rain = 0
KES1 081019Z 01005KT M01/M02 A3031 RMK A01 T10111019  RH  094%=      5-min Rain = 0
KES1 081020Z 00004KT M01/M02 A3031 RMK A01 T10111019  RH  094%=      5-min Rain = 0
KES1 081021Z 01004KT M01/M02 A3031 RMK A01 T10111019  RH  094%=      5-min Rain = 0
KES1 081022Z 00004KT M01/M02 A3031 RMK A01 T10111019  RH  094%=      5-min Rain = 0
KES1 081023Z 36005KT M01/M02 A3031 RMK A01 T10101019  RH  094%=      5-min Rain = 0
KES1 081024Z 36004KT M01/M02 A3031 RMK A01 T10101019  RH  094%=      5-min Rain = 0
KES1 081025Z 36004KT M01/M02 A3031 RMK A01 T10101019  RH  094%=      5-min Rain = 0
KES1 081026Z 36005KT M01/M02 A3031 RMK A01 T10101019  RH  094%=      5-min Rain = 0
KES1 081027Z 35004KT M01/M02 A303 RMK A01 T10101019  RH  094%=      5-min Rain = 0
KES1 081028Z 36005KT M01/M02 A303 RMK A01 T10101019  RH  093%=      5-min Rain = 0
KES1 081029Z 36005KT M01/M02 A303 RMK A01 T10101019  RH  093%=      5-min Rain = 0
KES1 081030Z 35005KT M01/M02 A303 RMK A01 T10101020  RH  093%=      5-min Rain = 0
KES1 081031Z 35005KT M01/M02 A303 RMK A01 T10101019  RH  093%=      5-min Rain = 0
KES1 081032Z 36005KT M01/M02 A303 RMK A01 T10101020  RH  093%=      5-min Rain = 0
KES1 081033Z 35005KT M01/M02 A303 RMK A01 T10101020  RH  093%=      5-min Rain = 0
KES1 081034Z 36005KT M01/M02 A303 RMK A01 T10101020  RH  093%=      5-min Rain = 0
KES1 081035Z 35005KT M01/M02 A303 RMK A01 T10101020  RH  093%=      5-min Rain = 0
KES1 081036Z 36005KT M01/M02 A303 RMK A01 T10091020  RH  093%=      5-min Rain = 0
KES1 081037Z 36004KT M01/M02 A303 RMK A01 T10091020  RH  092%=      5-min Rain = 0
KES1 081038Z 36006KT M01/M02 A303 RMK A01 T10091020  RH  092%=      5-min Rain = 0
KES1 081039Z 36005KT M01/M02 A303 RMK A01 T10091020  RH  092%=      5-min Rain = 0
KES1 081040Z 36005KT M01/M02 A303 RMK A01 T10091020  RH  092%=      5-min Rain = 0
KES1 081041Z 36005KT M01/M02 A303 RMK A01 T10091020  RH  092%=      5-min Rain = 0
KES1 081042Z 36005KT M01/M02 A303 RMK A01 T10091020  RH  092%=      5-min Rain = 0
KES1 081043Z 36005KT M01/M02 A303 RMK A01 T10091021  RH  092%=      5-min Rain = 0
KES1 081044Z 36006KT M01/M02 A303 RMK A01 T10091021  RH  091%=      5-min Rain = 0
KES1 081045Z 36006KT M01/M02 A303 RMK A01 T10091022  RH  091%=      5-min Rain = 0
KES1 081046Z 36006KT M01/M02 A303 RMK A01 T10091022  RH  091%=      5-min Rain = 0
KES1 081047Z 36005KT M01/M02 A303 RMK A01 T10081022  RH  091%=      5-min Rain = 0
KES1 081048Z 36005KT M01/M02 A303 RMK A01 T10091022  RH  091%=      5-min Rain = 0
KES1 081049Z 36005KT M01/M02 A303 RMK A01 T10081021  RH  091%=      5-min Rain = 0
KES1 081050Z 00005KT M01/M02 A303 RMK A01 T10081021  RH  091%=      5-min Rain = 0
KES1 081051Z 36005KT M01/M02 A303 RMK A01 T10091021  RH  091%=      5-min Rain = 0
KES1 081052Z 36005KT M01/M02 A303 RMK A01 T10091021  RH  092%=      5-min Rain = 0
KES1 081053Z 00005KT M01/M02 A303 RMK A01 T10091021  RH  092%=      5-min Rain = 0
KES1 081054Z 36005KT M01/M02 A303 RMK A01 T10091021  RH  092%=      5-min Rain = 0
KES1 081055Z 36005KT M01/M02 A303 RMK A01 T10101021  RH  092%=      5-min Rain = 0
KES1 081056Z 35005KT M01/M02 A303 RMK A01 T10101020  RH  093%=      5-min Rain = 0
KES1 081057Z 36004KT M01/M02 A303 RMK A01 T10101020  RH  093%=      5-min Rain = 0
KES1 081058Z 36004KT M01/M02 A3031 RMK A01 T10101020  RH  093%=      5-min Rain = 0
KES1 081059Z 35004KT M01/M02 A3031 RMK A01 T10101020  RH  093%=      5-min Rain = 0
KES1 081100Z 35004KT M01/M02 A3031 RMK A01 T10101020  RH  093%=      5-min Rain = 0
KES1 081101Z 35004KT M01/M02 A3031 RMK A01 T10101020  RH  093%=      5-min Rain = 0
KES1 081102Z 35004KT M01/M02 A3031 RMK A01 T10101020  RH  093%=      5-min Rain = 0
KES1 081103Z 35004KT M01/M02 A3031 RMK A01 T10101019  RH  094%=      5-min Rain = 0
KES1 081104Z 35004KT M01/M02 A3031 RMK A01 T10101019  RH  094%=      5-min Rain = 0
KES1 081105Z 35003KT M01/M02 A3031 RMK A01 T10101019  RH  094%=      5-min Rain = 0
KES1 081106Z 35003KT M01/M02 A3031 RMK A01 T10101018  RH  094%=      5-min Rain = 0
KES1 081107Z 35004KT M01/M02 A3031 RMK A01 T10101018  RH  094%=      5-min Rain = 0
KES1 081108Z 35004KT M01/M02 A3031 RMK A01 T10111019  RH  094%=      5-min Rain = 0
KES1 081109Z 36004KT M01/M02 A3031 RMK A01 T10111018  RH  095%=      5-min Rain = 0
KES1 081110Z 36004KT M01/M02 A3031 RMK A01 T10111018  RH  095%=      5-min Rain = 0
KES1 081111Z 35004KT M01/M02 A3031 RMK A01 T10111018  RH  095%=      5-min Rain = 0
KES1 081112Z 36004KT M01/M02 A3031 RMK A01 T10111018  RH  095%=      5-min Rain = 0
KES1 081113Z 36004KT M01/M02 A3031 RMK A01 T10111018  RH  095%=      5-min Rain = 0
KES1 081114Z 35003KT M01/M02 A3031 RMK A01 T10111018  RH  095%=      5-min Rain = 0
KES1 081115Z 35004KT M01/M02 A3031 RMK A01 T10111018  RH  095%=      5-min Rain = 0
KES1 081116Z 35003KT M01/M02 A3031 RMK A01 T10111018  RH  095%=      5-min Rain = 0
KES1 081117Z 35004KT M01/M02 A3031 RMK A01 T10111018  RH  095%=      5-min Rain = 0
KES1 081118Z 35003KT M01/M02 A3031 RMK A01 T10111018  RH  095%=      5-min Rain = 0
KES1 081119Z 35004KT M01/M02 A3031 RMK A01 T10111018  RH  096%=      5-min Rain = 0
KES1 081120Z 35003KT M01/M02 A3031 RMK A01 T10111017  RH  096%=      5-min Rain = 0
KES1 081121Z 35004KT M01/M02 A3031 RMK A01 T10111017  RH  096%=      5-min Rain = 0
KES1 081122Z 35004KT M01/M02 A3031 RMK A01 T10111017  RH  096%=      5-min Rain = 0
KES1 081123Z 35004KT M01/M02 A3031 RMK A01 T10111017  RH  096%=      5-min Rain = 0
KES1 081124Z 35004KT M01/M02 A3031 RMK A01 T10111017  RH  096%=      5-min Rain = 0
KES1 081125Z 35003KT M01/M02 A3031 RMK A01 T10111017  RH  096%=      5-min Rain = 0
KES1 081126Z 35004KT M01/M02 A3031 RMK A01 T10111017  RH  096%=      5-min Rain = 0
KES1 081127Z 35004KT M01/M02 A3031 RMK A01 T10111017  RH  096%=      5-min Rain = 0
KES1 081128Z 35004KT M01/M02 A3031 RMK A01 T10111017  RH  096%=      5-min Rain = 0
KES1 081129Z 34003KT M01/M02 A3031 RMK A01 T10111017  RH  096%=      5-min Rain = 0
KES1 081130Z 35004KT M01/M02 A3031 RMK A01 T10111018  RH  095%=      5-min Rain = 0
KES1 081131Z 35004KT M01/M02 A3031 RMK A01 T10111018  RH  095%=      5-min Rain = 0
KES1 081132Z 34004KT M01/M02 A3031 RMK A01 T10111018  RH  095%=      5-min Rain = 0
KES1 081133Z 34005KT M01/M02 A3031 RMK A01 T10111018  RH  095%=      5-min Rain = 0
KES1 081134Z 34004KT M01/M02 A3031 RMK A01 T10111018  RH  095%=      5-min Rain = 0
KES1 081135Z 34004KT M01/M02 A3031 RMK A01 T10111018  RH  095%=      5-min Rain = 0
KES1 081136Z 34004KT M01/M02 A3031 RMK A01 T10111018  RH  095%=      5-min Rain = 0
KES1 081137Z 34004KT M01/M02 A3031 RMK A01 T10111018  RH  095%=      5-min Rain = 0
KES1 081138Z 34004KT M01/M02 A3031 RMK A01 T10111018  RH  095%=      5-min Rain = 0
KES1 081139Z 34004KT M01/M02 A3031 RMK A01 T10111018  RH  095%=      5-min Rain = 0
KES1 081140Z 34004KT M01/M02 A3031 RMK A01 T10111018  RH  095%=      5-min Rain = 0
KES1 081141Z 34005KT M01/M02 A3031 RMK A01 T10101018  RH  095%=      5-min Rain = 0
KES1 081142Z 34004KT M01/M02 A3031 RMK A01 T10101018  RH  095%=      5-min Rain = 0
KES1 081143Z 34005KT M01/M02 A3031 RMK A01 T10101018  RH  094%=      5-min Rain = 0
KES1 081144Z 34004KT M01/M02 A3031 RMK A01 T10101018  RH  094%=      5-min Rain = 0
KES1 081145Z 34004KT M01/M02 A3031 RMK A01 T10101018  RH  094%=      5-min Rain = 0
KES1 081146Z 34004KT M01/M02 A3031 RMK A01 T10101019  RH  094%=      5-min Rain = 0
KES1 081147Z 34004KT M01/M02 A3031 RMK A01 T10101018  RH  094%=      5-min Rain = 0
KES1 081148Z 34004KT M01/M02 A3031 RMK A01 T10101018  RH  094%=      5-min Rain = 0
KES1 081149Z 34004KT M01/M02 A3031 RMK A01 T10101018  RH  095%=      5-min Rain = 0
KES1 081150Z 34004KT M01/M02 A3031 RMK A01 T10101018  RH  095%=      5-min Rain = 0
KES1 081151Z 34004KT M01/M02 A3031 RMK A01 T10101018  RH  095%=      5-min Rain = 0
KES1 081152Z 34004KT M01/M02 A3031 RMK A01 T10101018  RH  095%=      5-min Rain = 0
KES1 081153Z 35003KT M01/M02 A3031 RMK A01 T10101018  RH  095%=      5-min Rain = 0
KES1 081154Z 34003KT M01/M02 A3031 RMK A01 T10101017  RH  095%=      5-min Rain = 0
KES1 081155Z 34004KT M01/M02 A3031 RMK A01 T10101017  RH  095%=      5-min Rain = 0
KES1 081156Z 34004KT M01/M02 A3031 RMK A01 T10101017  RH  095%=      5-min Rain = 0
KES1 081157Z 33003KT M01/M02 A3031 RMK A01 T10101017  RH  095%=      5-min Rain = 0
KES1 081158Z 33003KT M01/M02 A3032 RMK A01 T10101017  RH  095%=      5-min Rain = 0
KES1 081159Z 33003KT M01/M02 A3032 RMK A01 T10101017  RH  095%=      5-min Rain = 0
KES1 081200Z 33003KT M01/M02 A3032 RMK A01 T10101017  RH  095%=      5-min Rain = 0
KES1 081201Z 33003KT M01/M02 A3032 RMK A01 T10101017  RH  095%=      5-min Rain = 0
KES1 081202Z 33004KT M01/M02 A3032 RMK A01 T10101017  RH  095%=      5-min Rain = 0
KES1 081203Z 34003KT M01/M02 A3032 RMK A01 T10101016  RH  096%=      5-min Rain = 0
KES1 081204Z 34003KT M01/M02 A3032 RMK A01 T10101016  RH  096%=      5-min Rain = 0
KES1 081205Z 33004KT M01/M02 A3032 RMK A01 T10101017  RH  096%=      5-min Rain = 0
KES1 081206Z 33003KT M01/M02 A3032 RMK A01 T10101016  RH  096%=      5-min Rain = 0
KES1 081207Z 33004KT M01/M02 A3032 RMK A01 T10101017  RH  096%=      5-min Rain = 0
KES1 081208Z 34004KT M01/M02 A3032 RMK A01 T10101016  RH  096%=      5-min Rain = 0
KES1 081209Z 34005KT M01/M02 A3032 RMK A01 T10101017  RH  096%=      5-min Rain = 0
KES1 081210Z 35005KT M01/M02 A3032 RMK A01 T10101017  RH  096%=      5-min Rain = 0
KES1 081211Z 35005KT M01/M02 A3032 RMK A01 T10101017  RH  095%=      5-min Rain = 0
KES1 081212Z 35005KT M01/M02 A3032 RMK A01 T10101017  RH  095%=      5-min Rain = 0
KES1 081213Z 35006KT M01/M02 A3032 RMK A01 T10101017  RH  095%=      5-min Rain = 0
KES1 081214Z 35005KT M01/M02 A3032 RMK A01 T10101017  RH  095%=      5-min Rain = 0
KES1 081215Z 35005KT M01/M02 A3032 RMK A01 T10101017  RH  095%=      5-min Rain = 0
KES1 081216Z 35006KT M01/M02 A3032 RMK A01 T10101017  RH  095%=      5-min Rain = 0
KES1 081217Z 34005KT M01/M02 A3032 RMK A01 T10101017  RH  095%=      5-min Rain = 0
KES1 081218Z 34005KT M01/M02 A3032 RMK A01 T10101017  RH  095%=      5-min Rain = 0
KES1 081219Z 34005KT M01/M02 A3032 RMK A01 T10101017  RH  095%=      5-min Rain = 0
KES1 081220Z 34005KT M01/M02 A3032 RMK A01 T10101017  RH  095%=      5-min Rain = 0
KES1 081221Z 34005KT M01/M02 A3032 RMK A01 T10101017  RH  096%=      5-min Rain = 0
KES1 081222Z 35005KT M01/M02 A3032 RMK A01 T10101017  RH  096%=      5-min Rain = 0
KES1 081223Z 34005KT M01/M02 A3032 RMK A01 T10101016  RH  096%=      5-min Rain = 0
KES1 081224Z 35005KT M01/M02 A3032 RMK A01 T10101016  RH  096%=      5-min Rain = 0
KES1 081225Z 35005KT M01/M02 A3032 RMK A01 T10101016  RH  096%=      5-min Rain = 0
KES1 081226Z 35005KT M01/M02 A3032 RMK A01 T10101016  RH  096%=      5-min Rain = 0
KES1 081227Z 35004KT M01/M02 A3032 RMK A01 T10101016  RH  096%=      5-min Rain = 0
KES1 081228Z 35004KT M01/M02 A3032 RMK A01 T10101016  RH  096%=      5-min Rain = 0
KES1 081229Z 35004KT M01/M02 A3032 RMK A01 T10111016  RH  096%=      5-min Rain = 0
KES1 081230Z 35004KT M01/M02 A3032 RMK A01 T10111016  RH  096%=      5-min Rain = 0
KES1 081231Z 35004KT M01/M02 A3032 RMK A01 T10111016  RH  096%=      5-min Rain = 0
KES1 081232Z 35004KT M01/M02 A3032 RMK A01 T10111016  RH  096%=      5-min Rain = 0
KES1 081233Z 35004KT M01/M02 A3032 RMK A01 T10111016  RH  096%=      5-min Rain = 0
KES1 081234Z 35003KT M01/M02 A3032 RMK A01 T10111016  RH  096%=      5-min Rain = 0
KES1 081235Z 35003KT M01/M02 A3032 RMK A01 T10111016  RH  096%=      5-min Rain = 0
KES1 081236Z 34003KT M01/M02 A3032 RMK A01 T10111016  RH  096%=      5-min Rain = 0
KES1 081237Z 34003KT M01/M02 A3032 RMK A01 T10111016  RH  096%=      5-min Rain = 0
KES1 081238Z 35003KT M01/M02 A3032 RMK A01 T10111016  RH  096%=      5-min Rain = 0
KES1 081239Z 35004KT M01/M02 A3032 RMK A01 T10111016  RH  097%=      5-min Rain = 0
KES1 081240Z 35003KT M01/M02 A3032 RMK A01 T10101015  RH  097%=      5-min Rain = 0
KES1 081241Z 35003KT M01/M02 A3032 RMK A01 T10111016  RH  097%=      5-min Rain = 0
KES1 081242Z 35003KT M01/M02 A3032 RMK A01 T10111015  RH  097%=      5-min Rain = 0
KES1 081243Z 35003KT M01/M02 A3032 RMK A01 T10111015  RH  097%=      5-min Rain = 0
KES1 081244Z 36003KT M01/M02 A3032 RMK A01 T10111016  RH  097%=      5-min Rain = 0
KES1 081245Z 36004KT M01/M02 A3032 RMK A01 T10111015  RH  097%=      5-min Rain = 0
KES1 081246Z 00004KT M01/M02 A3032 RMK A01 T10111015  RH  097%=      5-min Rain = 0
KES1 081247Z 36004KT M01/M02 A3032 RMK A01 T10111015  RH  097%=      5-min Rain = 0
KES1 081248Z 36003KT M01/M02 A3032 RMK A01 T10111015  RH  097%=      5-min Rain = 0
KES1 081249Z 00004KT M01/M02 A3032 RMK A01 T10111015  RH  097%=      5-min Rain = 0
KES1 081250Z 36004KT M01/M02 A3032 RMK A01 T10111015  RH  097%=      5-min Rain = 0
KES1 081251Z 36003KT M01/M02 A3032 RMK A01 T10111015  RH  097%=      5-min Rain = 0
KES1 081252Z 35003KT M01/M02 A3032 RMK A01 T10111015  RH  097%=      5-min Rain = 0
KES1 081253Z 36003KT M01/M02 A3032 RMK A01 T10111015  RH  097%=      5-min Rain = 0
KES1 081254Z 00003KT M01/M02 A3032 RMK A01 T10111015  RH  097%=      5-min Rain = 0
KES1 081255Z 00003KT M01/M02 A3032 RMK A01 T10111015  RH  097%=      5-min Rain = 0
KES1 081256Z 00003KT M01/M02 A3032 RMK A01 T10111015  RH  097%=      5-min Rain = 0
KES1 081257Z 01003KT M01/M02 A3033 RMK A01 T10111015  RH  097%=      5-min Rain = 0
KES1 081258Z 01003KT M01/M02 A3033 RMK A01 T10101015  RH  097%=      5-min Rain = 0
KES1 081259Z 01003KT M01/M02 A3033 RMK A01 T10111015  RH  097%=      5-min Rain = 0
KES1 081300Z 01003KT M01/M02 A3033 RMK A01 T10111015  RH  097%=      5-min Rain = 0
KES1 081301Z 00004KT M01/M02 A3033 RMK A01 T10111015  RH  097%=      5-min Rain = 0
KES1 081302Z 01003KT M01/M02 A3033 RMK A01 T10111015  RH  097%=      5-min Rain = 0
KES1 081303Z 01004KT M01/M02 A3033 RMK A01 T10111015  RH  097%=      5-min Rain = 0
KES1 081304Z 00003KT M01/M02 A3033 RMK A01 T10111015  RH  097%=      5-min Rain = 0
KES1 081305Z 01003KT M01/M02 A3033 RMK A01 T10111015  RH  097%=      5-min Rain = 0
KES1 081306Z 02004KT M01/M02 A3033 RMK A01 T10111015  RH  097%=      5-min Rain = 0
KES1 081307Z 01004KT M01/M02 A3033 RMK A01 T10111015  RH  097%=      5-min Rain = 0
KES1 081308Z 02003KT M01/M02 A3033 RMK A01 T10111015  RH  097%=      5-min Rain = 0
KES1 081309Z 02003KT M01/M02 A3033 RMK A01 T10111016  RH  097%=      5-min Rain = 0
KES1 081310Z 02003KT M01/M02 A3033 RMK A01 T10111016  RH  097%=      5-min Rain = 0
KES1 081311Z 02005KT M01/M02 A3033 RMK A01 T10111016  RH  097%=      5-min Rain = 0
KES1 081312Z 02005KT M01/M02 A3033 RMK A01 T10111016  RH  097%=      5-min Rain = 0
KES1 081313Z 02004KT M01/M02 A3033 RMK A01 T10111016  RH  096%=      5-min Rain = 0
KES1 081314Z 02005KT M01/M02 A3033 RMK A01 T10111016  RH  096%=      5-min Rain = 0
KES1 081315Z 02005KT M01/M02 A3033 RMK A01 T10111016  RH  096%=      5-min Rain = 0
KES1 081316Z 02005KT M01/M02 A3033 RMK A01 T10111017  RH  096%=      5-min Rain = 0
KES1 081317Z 02004KT M01/M02 A3033 RMK A01 T10111017  RH  096%=      5-min Rain = 0
KES1 081318Z 02004KT M01/M02 A3033 RMK A01 T10111017  RH  095%=      5-min Rain = 0
KES1 081319Z 01004KT M01/M02 A3033 RMK A01 T10111017  RH  095%=      5-min Rain = 0
KES1 081320Z 01005KT M01/M02 A3033 RMK A01 T10111017  RH  095%=      5-min Rain = 0
KES1 081321Z 01003KT M01/M02 A3033 RMK A01 T10101018  RH  095%=      5-min Rain = 0
KES1 081322Z 02004KT M01/M02 A3033 RMK A01 T10101018  RH  095%=      5-min Rain = 0
KES1 081323Z 01004KT M01/M02 A3033 RMK A01 T10101018  RH  095%=      5-min Rain = 0
KES1 081324Z 02003KT M01/M02 A3033 RMK A01 T10101018  RH  095%=      5-min Rain = 0
KES1 081325Z 02004KT M01/M02 A3033 RMK A01 T10101018  RH  095%=      5-min Rain = 0
KES1 081326Z 01004KT M01/M02 A3033 RMK A01 T10101018  RH  095%=      5-min Rain = 0
KES1 081327Z 02004KT M01/M02 A3033 RMK A01 T10101018  RH  095%=      5-min Rain = 0
KES1 081328Z 02004KT M01/M02 A3033 RMK A01 T10101018  RH  095%=      5-min Rain = 0
KES1 081329Z 01004KT M01/M02 A3033 RMK A01 T10101018  RH  095%=      5-min Rain = 0
KES1 081330Z 02004KT M01/M02 A3033 RMK A01 T10101018  RH  095%=      5-min Rain = 0
KES1 081331Z 02004KT M01/M02 A3033 RMK A01 T10101018  RH  095%=      5-min Rain = 0
KES1 081332Z 02003KT M01/M02 A3033 RMK A01 T10101017  RH  095%=      5-min Rain = 0
KES1 081333Z 02003KT M01/M02 A3034 RMK A01 T10101017  RH  095%=      5-min Rain = 0
KES1 081334Z 02003KT M01/M02 A3034 RMK A01 T10101018  RH  095%=      5-min Rain = 0
KES1 081335Z 02003KT M01/M02 A3034 RMK A01 T10101018  RH  095%=      5-min Rain = 0
KES1 081336Z 03003KT M01/M02 A3034 RMK A01 T10101018  RH  095%=      5-min Rain = 0
KES1 081337Z 02003KT M01/M02 A3034 RMK A01 T10101018  RH  095%=      5-min Rain = 0
KES1 081338Z 03003KT M01/M02 A3034 RMK A01 T10101018  RH  095%=      5-min Rain = 0
KES1 081339Z 02003KT M01/M02 A3034 RMK A01 T10101018  RH  095%=      5-min Rain = 0
KES1 081340Z 02002KT M01/M02 A3034 RMK A01 T10101018  RH  095%=      5-min Rain = 0
KES1 081341Z 02002KT M01/M02 A3034 RMK A01 T10101018  RH  095%=      5-min Rain = 0
KES1 081342Z 02002KT M01/M02 A3034 RMK A01 T10101018  RH  095%=      5-min Rain = 0
KES1 081343Z 02002KT M01/M02 A3034 RMK A01 T10101018  RH  095%=      5-min Rain = 0
KES1 081344Z 01002KT M01/M02 A3034 RMK A01 T10101018  RH  095%=      5-min Rain = 0
KES1 081345Z 01002KT M01/M02 A3034 RMK A01 T10101018  RH  095%=      5-min Rain = 0
KES1 081346Z 01002KT M01/M02 A3034 RMK A01 T10101018  RH  095%=      5-min Rain = 0
KES1 081347Z 01002KT M01/M02 A3034 RMK A01 T10101017  RH  095%=      5-min Rain = 0
KES1 081348Z 01002KT M01/M02 A3034 RMK A01 T10101017  RH  095%=      5-min Rain = 0
KES1 081349Z 35002KT M01/M02 A3034 RMK A01 T10101017  RH  095%=      5-min Rain = 0
KES1 081350Z 02002KT M01/M02 A3034 RMK A01 T10101017  RH  095%=      5-min Rain = 0
KES1 081351Z 03002KT M01/M02 A3034 RMK A01 T10101017  RH  095%=      5-min Rain = 0
KES1 081352Z 03003KT M01/M02 A3034 RMK A01 T10101017  RH  095%=      5-min Rain = 0
KES1 081353Z 00003KT M01/M02 A3034 RMK A01 T10101017  RH  095%=      5-min Rain = 0
KES1 081354Z 02002KT M01/M02 A3034 RMK A01 T10101017  RH  095%=      5-min Rain = 0
KES1 081355Z 02003KT M01/M02 A3034 RMK A01 T10101017  RH  095%=      5-min Rain = 0
KES1 081356Z 03004KT M01/M02 A3034 RMK A01 T10101017  RH  095%=      5-min Rain = 0
KES1 081357Z 02004KT M01/M02 A3034 RMK A01 T10101018  RH  095%=      5-min Rain = 0
KES1 081358Z 03005KT M01/M02 A3034 RMK A01 T10101019  RH  094%=      5-min Rain = 0
KES1 081359Z 02006KT M01/M02 A3034 RMK A01 T10101021  RH  092%=      5-min Rain = 0
KES1 081400Z 02004KT M01/M02 A3034 RMK A01 T10101023  RH  091%=      5-min Rain = 0
KES1 081401Z 02004KT M01/M02 A3034 RMK A01 T10091023  RH  091%=      5-min Rain = 0
KES1 081402Z 03005KT M01/M02 A3034 RMK A01 T10091023  RH  090%=      5-min Rain = 0
KES1 081403Z 02005KT M01/M03 A3034 RMK A01 T10091025  RH  089%=      5-min Rain = 0
KES1 081404Z 03004KT M01/M03 A3034 RMK A01 T10091026  RH  088%=      5-min Rain = 0
KES1 081405Z 03004KT M01/M03 A3034 RMK A01 T10091026  RH  088%=      5-min Rain = 0
KES1 081406Z 02005KT M01/M03 A3034 RMK A01 T10091026  RH  088%=      5-min Rain = 0
KES1 081407Z 02004KT M01/M03 A3034 RMK A01 T10091026  RH  088%=      5-min Rain = 0
KES1 081408Z 02005KT M01/M03 A3034 RMK A01 T10091028  RH  087%=      5-min Rain = 0
KES1 081409Z 02004KT M01/M03 A3034 RMK A01 T10091028  RH  087%=      5-min Rain = 0
KES1 081410Z 03006KT M01/M03 A3034 RMK A01 T10091028  RH  087%=      5-min Rain = 0
KES1 081411Z 02006KT M01/M03 A3034 RMK A01 T10091031  RH  085%=      5-min Rain = 0
KES1 081412Z 02005KT M01/M03 A3034 RMK A01 T10091032  RH  084%=      5-min Rain = 0
KES1 081413Z 01005KT M01/M03 A3034 RMK A01 T10091032  RH  084%=      5-min Rain = 0
KES1 081414Z 01005KT M01/M03 A3034 RMK A01 T10091032  RH  084%=      5-min Rain = 0
KES1 081415Z 01006KT M01/M03 A3034 RMK A01 T10091032  RH  085%=      5-min Rain = 0
KES1 081416Z 02006KT M01/M03 A3034 RMK A01 T10091033  RH  084%=      5-min Rain = 0
KES1 081417Z 01007KT M01/M03 A3034 RMK A01 T10091033  RH  084%=      5-min Rain = 0
KES1 081418Z 01007KT M01/M03 A3034 RMK A01 T10091034  RH  083%=      5-min Rain = 0
KES1 081419Z 02007KT M01/M04 A3034 RMK A01 T10091035  RH  082%=      5-min Rain = 0
KES1 081420Z 02006KT M01/M04 A3034 RMK A01 T10091036  RH  082%=      5-min Rain = 0
KES1 081421Z 02006KT M01/M04 A3034 RMK A01 T10091035  RH  082%=      5-min Rain = 0
KES1 081422Z 02006KT M01/M04 A3034 RMK A01 T10081035  RH  082%=      5-min Rain = 0
KES1 081423Z 02005KT M01/M04 A3034 RMK A01 T10081035  RH  082%=      5-min Rain = 0
KES1 081424Z 02005KT M01/M03 A3034 RMK A01 T10081034  RH  083%=      5-min Rain = 0
KES1 081425Z 02005KT M01/M03 A3034 RMK A01 T10081034  RH  083%=      5-min Rain = 0
KES1 081426Z 02005KT M01/M04 A3034 RMK A01 T10081035  RH  082%=      5-min Rain = 0
KES1 081427Z 02004KT M01/M04 A3034 RMK A01 T10081036  RH  082%=      5-min Rain = 0
KES1 081428Z 02005KT M01/M04 A3034 RMK A01 T10081035  RH  082%=      5-min Rain = 0
KES1 081429Z 02005KT M01/M04 A3034 RMK A01 T10081036  RH  082%=      5-min Rain = 0
KES1 081430Z 02005KT M01/M04 A3034 RMK A01 T10081036  RH  081%=      5-min Rain = 0
KES1 081431Z 02005KT M01/M04 A3034 RMK A01 T10081036  RH  082%=      5-min Rain = 0
KES1 081432Z 02004KT M01/M04 A3034 RMK A01 T10081035  RH  082%=      5-min Rain = 0
KES1 081433Z 02004KT M01/M03 A3034 RMK A01 T10081033  RH  083%=      5-min Rain = 0
KES1 081434Z 02004KT M01/M03 A3034 RMK A01 T10081033  RH  083%=      5-min Rain = 0
KES1 081435Z 02004KT M01/M03 A3034 RMK A01 T10081033  RH  083%=      5-min Rain = 0
KES1 081436Z 02004KT M01/M03 A3034 RMK A01 T10081034  RH  082%=      5-min Rain = 0
KES1 081437Z 02004KT M01/M03 A3034 RMK A01 T10081034  RH  082%=      5-min Rain = 0
KES1 081438Z 02004KT M01/M03 A3034 RMK A01 T10081034  RH  083%=      5-min Rain = 0
KES1 081439Z 02004KT M01/M04 A3034 RMK A01 T10081035  RH  082%=      5-min Rain = 0
KES1 081440Z 01003KT M01/M04 A3034 RMK A01 T10071035  RH  082%=      5-min Rain = 0
KES1 081441Z 01005KT M01/M03 A3034 RMK A01 T10081034  RH  083%=      5-min Rain = 0
KES1 081442Z 01004KT M01/M03 A3034 RMK A01 T10081034  RH  082%=      5-min Rain = 0
KES1 081443Z 01005KT M01/M03 A3034 RMK A01 T10081034  RH  082%=      5-min Rain = 0
KES1 081444Z 00004KT M01/M04 A3034 RMK A01 T10081035  RH  082%=      5-min Rain = 0
KES1 081445Z 00004KT M01/M03 A3034 RMK A01 T10071034  RH  082%=      5-min Rain = 0
KES1 081446Z 00005KT M01/M03 A3034 RMK A01 T10081034  RH  082%=      5-min Rain = 0
KES1 081447Z 00004KT M01/M03 A3034 RMK A01 T10081034  RH  082%=      5-min Rain = 0
KES1 081448Z 00004KT M01/M03 A3034 RMK A01 T10071033  RH  083%=      5-min Rain = 0
KES1 081449Z 36004KT M01/M03 A3034 RMK A01 T10081033  RH  083%=      5-min Rain = 0
KES1 081450Z 00004KT M01/M03 A3034 RMK A01 T10071032  RH  083%=      5-min Rain = 0
KES1 081451Z 35003KT M01/M03 A3034 RMK A01 T10071032  RH  083%=      5-min Rain = 0
KES1 081452Z 36003KT M01/M03 A3034 RMK A01 T10071030  RH  084%=      5-min Rain = 0
KES1 081453Z 35003KT M01/M03 A3034 RMK A01 T10071030  RH  085%=      5-min Rain = 0
KES1 081454Z 35004KT M01/M03 A3034 RMK A01 T10071029  RH  085%=      5-min Rain = 0
KES1 081455Z 35003KT M01/M03 A3034 RMK A01 T10071030  RH  084%=      5-min Rain = 0
KES1 081456Z 35004KT M01/M03 A3034 RMK A01 T10071031  RH  084%=      5-min Rain = 0
KES1 081457Z 36003KT M01/M03 A3034 RMK A01 T10071031  RH  084%=      5-min Rain = 0
KES1 081458Z 35003KT M01/M03 A3034 RMK A01 T10071031  RH  084%=      5-min Rain = 0
KES1 081459Z 35003KT M01/M03 A3034 RMK A01 T10071031  RH  084%=      5-min Rain = 0
KES1 081500Z 34003KT M01/M03 A3034 RMK A01 T10071031  RH  084%=      5-min Rain = 0
KES1 081501Z 34003KT M01/M03 A3035 RMK A01 T10071030  RH  084%=      5-min Rain = 0
KES1 081502Z 34003KT M01/M03 A3035 RMK A01 T10071030  RH  084%=      5-min Rain = 0
KES1 081503Z 33003KT M01/M03 A3035 RMK A01 T10071029  RH  085%=      5-min Rain = 0
KES1 081504Z 32003KT M01/M03 A3035 RMK A01 T10071029  RH  085%=      5-min Rain = 0
KES1 081505Z 32003KT M01/M03 A3035 RMK A01 T10061028  RH  085%=      5-min Rain = 0
KES1 081506Z 32003KT M01/M03 A3035 RMK A01 T10061027  RH  086%=      5-min Rain = 0
KES1 081507Z 32003KT M01/M03 A3035 RMK A01 T10061027  RH  086%=      5-min Rain = 0
KES1 081508Z 32003KT M01/M03 A3035 RMK A01 T10061025  RH  087%=      5-min Rain = 0
KES1 081509Z 32004KT M01/M03 A3035 RMK A01 T10061025  RH  087%=      5-min Rain = 0
KES1 081510Z 32003KT M01/M03 A3035 RMK A01 T10061026  RH  086%=      5-min Rain = 0
KES1 081511Z 32004KT M01/M03 A3035 RMK A01 T10061026  RH  086%=      5-min Rain = 0
KES1 081512Z 33004KT M01/M03 A3035 RMK A01 T10061026  RH  086%=      5-min Rain = 0
KES1 081513Z 32004KT M01/M03 A3035 RMK A01 T10061027  RH  085%=      5-min Rain = 0
KES1 081514Z 32004KT M01/M03 A3035 RMK A01 T10051027  RH  085%=      5-min Rain = 0
KES1 081515Z 32004KT M01/M03 A3035 RMK A01 T10051026  RH  086%=      5-min Rain = 0
KES1 081516Z 32004KT M01/M03 A3035 RMK A01 T10051027  RH  085%=      5-min Rain = 0
KES1 081517Z 32004KT M01/M03 A3035 RMK A01 T10051027  RH  085%=      5-min Rain = 0
KES1 081518Z 32003KT M01/M03 A3035 RMK A01 T10051026  RH  085%=      5-min Rain = 0
KES1 081519Z 32003KT M01/M03 A3035 RMK A01 T10051026  RH  086%=      5-min Rain = 0
KES1 081520Z 32003KT M01/M03 A3035 RMK A01 T10051026  RH  086%=      5-min Rain = 0
KES1 081521Z 32003KT M01/M03 A3035 RMK A01 T10051026  RH  086%=      5-min Rain = 0
KES1 081522Z 32003KT M01/M03 A3035 RMK A01 T10051026  RH  085%=      5-min Rain = 0
KES1 081523Z 32003KT M00/M03 A3035 RMK A01 T10041025  RH  086%=      5-min Rain = 0
KES1 081524Z 32003KT M00/M02 A3035 RMK A01 T10041024  RH  087%=      5-min Rain = 0
KES1 081525Z 32003KT M00/M02 A3035 RMK A01 T10041023  RH  087%=      5-min Rain = 0
KES1 081526Z 32003KT M00/M02 A3035 RMK A01 T10041022  RH  087%=      5-min Rain = 0
KES1 081527Z 32004KT M00/M02 A3035 RMK A01 T10041023  RH  087%=      5-min Rain = 0
KES1 081528Z 33004KT M00/M02 A3035 RMK A01 T10041024  RH  086%=      5-min Rain = 0
KES1 081529Z 33004KT M00/M03 A3035 RMK A01 T10041025  RH  085%=      5-min Rain = 0
KES1 081530Z 33004KT M00/M03 A3035 RMK A01 T10031025  RH  085%=      5-min Rain = 0
KES1 081531Z 33004KT M00/M03 A3035 RMK A01 T10031025  RH  085%=      5-min Rain = 0
KES1 081532Z 33004KT M00/M03 A3035 RMK A01 T10031025  RH  085%=      5-min Rain = 0
KES1 081533Z 33004KT M00/M03 A3035 RMK A01 T10031026  RH  085%=      5-min Rain = 0
KES1 081534Z 34004KT M00/M03 A3035 RMK A01 T10031027  RH  084%=      5-min Rain = 0
KES1 081535Z 34004KT M00/M03 A3036 RMK A01 T10031027  RH  084%=      5-min Rain = 0
KES1 081536Z 34005KT M00/M03 A3036 RMK A01 T10041027  RH  084%=      5-min Rain = 0
KES1 081537Z 34005KT M00/M03 A3036 RMK A01 T10031029  RH  083%=      5-min Rain = 0
KES1 081538Z 33005KT M00/M03 A3036 RMK A01 T10031029  RH  083%=      5-min Rain = 0
KES1 081539Z 34005KT M00/M03 A3036 RMK A01 T10031029  RH  082%=      5-min Rain = 0
KES1 081540Z 34006KT M00/M03 A3036 RMK A01 T10031030  RH  082%=      5-min Rain = 0
KES1 081541Z 34005KT M00/M03 A3036 RMK A01 T10021030  RH  082%=      5-min Rain = 0
KES1 081542Z 34005KT M00/M03 A3036 RMK A01 T10021029  RH  082%=      5-min Rain = 0
KES1 081543Z 34005KT M00/M03 A3036 RMK A01 T10021029  RH  082%=      5-min Rain = 0
KES1 081544Z 35005KT M00/M03 A3036 RMK A01 T10031029  RH  082%=      5-min Rain = 0
KES1 081545Z 35005KT M00/M03 A3036 RMK A01 T10021030  RH  082%=      5-min Rain = 0
KES1 081546Z 35005KT M00/M03 A3036 RMK A01 T10021029  RH  082%=      5-min Rain = 0
KES1 081547Z 35004KT M00/M03 A3036 RMK A01 T10021028  RH  083%=      5-min Rain = 0
KES1 081548Z 35005KT M00/M03 A3036 RMK A01 T10021028  RH  083%=      5-min Rain = 0
KES1 081549Z 35005KT M00/M03 A3036 RMK A01 T10021028  RH  083%=      5-min Rain = 0
KES1 081550Z 35005KT M00/M03 A3036 RMK A01 T10021028  RH  083%=      5-min Rain = 0
KES1 081551Z 35005KT M00/M03 A3036 RMK A01 T10021029  RH  082%=      5-min Rain = 0
KES1 081552Z 35005KT M00/M03 A3036 RMK A01 T10011030  RH  081%=      5-min Rain = 0
KES1 081553Z 35006KT M00/M03 A3036 RMK A01 T10021031  RH  080%=      5-min Rain = 0
KES1 081554Z 35005KT M00/M03 A3036 RMK A01 T10011033  RH  079%=      5-min Rain = 0
KES1 081555Z 35005KT M00/M03 A3036 RMK A01 T10011032  RH  080%=      5-min Rain = 0
KES1 081556Z 35005KT 00/03 A3036 RMK A01 T00-00-31  RH  080%=      5-min Rain = 0
KES1 081557Z 35005KT M00/M03 A3036 RMK A01 T10011032  RH  079%=      5-min Rain = 0
KES1 081558Z 35005KT M00/M03 A3036 RMK A01 T10011032  RH  080%=      5-min Rain = 0
KES1 081559Z 35004KT M00/M03 A3036 RMK A01 T10011031  RH  080%=      5-min Rain = 0
KES1 081600Z 35005KT M00/M03 A3036 RMK A01 T10011031  RH  080%=      5-min Rain = 0
KES1 081601Z 35005KT M00/M03 A3036 RMK A01 T10011033  RH  079%=      5-min Rain = 0
KES1 081602Z 35005KT 00/03 A3036 RMK A01 T00-00-33  RH  078%=      5-min Rain = 0
KES1 081603Z 35006KT 00/03 A3036 RMK A01 T00-00-33  RH  078%=      5-min Rain = 0
KES1 081604Z 34005KT 00/03 A3036 RMK A01 T00-00-34  RH  078%=      5-min Rain = 0
KES1 081605Z 35005KT 00/03 A3036 RMK A01 T00000-34  RH  078%=      5-min Rain = 0
KES1 081606Z 35005KT 00/03 A3036 RMK A01 T00000-33  RH  078%=      5-min Rain = 0
KES1 081607Z 35006KT 00/03 A3036 RMK A01 T00000-33  RH  078%=      5-min Rain = 0
KES1 081608Z 34006KT 00/04 A3036 RMK A01 T00000-35  RH  078%=      5-min Rain = 0
KES1 081609Z 34005KT 00/M04 A3036 RMK A01 T00011035  RH  077%=      5-min Rain = 0
KES1 081610Z 34005KT 00/M03 A3036 RMK A01 T00011034  RH  077%=      5-min Rain = 0
KES1 081611Z 34006KT 00/M03 A3036 RMK A01 T00011034  RH  078%=      5-min Rain = 0
KES1 081612Z 34005KT 00/M03 A3037 RMK A01 T00011034  RH  078%=      5-min Rain = 0
KES1 081613Z 35005KT 00/M03 A3037 RMK A01 T00011033  RH  078%=      5-min Rain = 0
KES1 081614Z 34005KT 00/M03 A3037 RMK A01 T00011032  RH  078%=      5-min Rain = 0
KES1 081615Z 35007KT 00/M04 A3037 RMK A01 T00011035  RH  077%=      5-min Rain = 0
KES1 081616Z 33005KT 00/M04 A3037 RMK A01 T00021039  RH  074%=      5-min Rain = 0
KES1 081617Z 34005KT 00/M04 A3037 RMK A01 T00021036  RH  076%=      5-min Rain = 0
KES1 081618Z 33005KT 00/M04 A3037 RMK A01 T00021035  RH  076%=      5-min Rain = 0
KES1 081619Z 34005KT 00/M03 A3037 RMK A01 T00021033  RH  078%=      5-min Rain = 0
KES1 081620Z 34005KT 00/M03 A3037 RMK A01 T00021033  RH  077%=      5-min Rain = 0
KES1 081621Z 34005KT 00/M03 A3037 RMK A01 T00021033  RH  077%=      5-min Rain = 0
KES1 081622Z 34005KT 00/M03 A3037 RMK A01 T00021034  RH  077%=      5-min Rain = 0
KES1 081623Z 34005KT 00/M03 A3037 RMK A01 T00021033  RH  077%=      5-min Rain = 0
KES1 081624Z 35006KT 00/M03 A3037 RMK A01 T00021033  RH  077%=      5-min Rain = 0
KES1 081625Z 34005KT 00/M04 A3037 RMK A01 T00021035  RH  076%=      5-min Rain = 0
KES1 081626Z 35007KT 00/M04 A3037 RMK A01 T00031035  RH  076%=      5-min Rain = 0
KES1 081627Z 35006KT 00/M04 A3037 RMK A01 T00031038  RH  074%=      5-min Rain = 0
KES1 081628Z 34005KT 00/M04 A3037 RMK A01 T00031037  RH  074%=      5-min Rain = 0
KES1 081629Z 34005KT 00/M04 A3037 RMK A01 T00031036  RH  075%=      5-min Rain = 0
KES1 081630Z 34006KT 00/M04 A3037 RMK A01 T00031036  RH  075%=      5-min Rain = 0
KES1 081631Z 34006KT 00/M04 A3037 RMK A01 T00031038  RH  074%=      5-min Rain = 0
KES1 081632Z 35005KT 00/M04 A3037 RMK A01 T00031037  RH  075%=      5-min Rain = 0
KES1 081633Z 34005KT 00/M04 A3037 RMK A01 T00031037  RH  074%=      5-min Rain = 0
KES1 081634Z 35005KT 00/M04 A3037 RMK A01 T00031036  RH  075%=      5-min Rain = 0
KES1 081635Z 34005KT 00/M04 A3037 RMK A01 T00031035  RH  075%=      5-min Rain = 0
KES1 081636Z 34004KT 00/M04 A3037 RMK A01 T00031035  RH  076%=      5-min Rain = 0
KES1 081637Z 34005KT 00/M04 A3037 RMK A01 T00031035  RH  075%=      5-min Rain = 0
KES1 081638Z 33005KT 00/M04 A3037 RMK A01 T00031036  RH  075%=      5-min Rain = 0
KES1 081639Z 35005KT 00/M04 A3037 RMK A01 T00031037  RH  075%=      5-min Rain = 0
KES1 081640Z 34006KT 00/M04 A3037 RMK A01 T00041037  RH  074%=      5-min Rain = 0
KES1 081641Z 34006KT 00/M04 A3037 RMK A01 T00041037  RH  074%=      5-min Rain = 0
KES1 081642Z 34006KT 00/M04 A3037 RMK A01 T00041037  RH  074%=      5-min Rain = 0
KES1 081643Z 34007KT 00/M04 A3037 RMK A01 T00041038  RH  073%=      5-min Rain = 0
KES1 081644Z 35006KT 00/M04 A3037 RMK A01 T00041041  RH  072%=      5-min Rain = 0
KES1 081645Z 34006KT 00/M04 A3037 RMK A01 T00041041  RH  072%=      5-min Rain = 0
KES1 081646Z 35005KT 00/M04 A3037 RMK A01 T00041042  RH  071%=      5-min Rain = 0
KES1 081647Z 35006KT 00/M04 A3037 RMK A01 T00041039  RH  073%=      5-min Rain = 0
KES1 081648Z 35006KT 00/M04 A3037 RMK A01 T00041040  RH  072%=      5-min Rain = 0
KES1 081649Z 35006KT 00/M04 A3037 RMK A01 T00041041  RH  072%=      5-min Rain = 0
KES1 081650Z 35004KT 01/M04 A3037 RMK A01 T00051039  RH  072%=      5-min Rain = 0
KES1 081651Z 34004KT 01/M04 A3037 RMK A01 T00051036  RH  074%=      5-min Rain = 0
KES1 081652Z 34006KT 01/M04 A3037 RMK A01 T00051035  RH  075%=      5-min Rain = 0
KES1 081653Z 35006KT 01/M04 A3037 RMK A01 T00051041  RH  072%=      5-min Rain = 0
KES1 081654Z 35007KT 01/M04 A3037 RMK A01 T00051042  RH  071%=      5-min Rain = 0
KES1 081655Z 35007KT 01/M04 A3037 RMK A01 T00051043  RH  070%=      5-min Rain = 0
KES1 081656Z 35007KT 01/M05 A3037 RMK A01 T00051045  RH  069%=      5-min Rain = 0
KES1 081657Z 34005KT 01/M04 A3037 RMK A01 T00051043  RH  070%=      5-min Rain = 0
KES1 081658Z 35006KT 01/M04 A3037 RMK A01 T00051040  RH  072%=      5-min Rain = 0
KES1 081659Z 34006KT 01/M04 A3037 RMK A01 T00061043  RH  070%=      5-min Rain = 0
KES1 081700Z 34006KT 01/M04 A3037 RMK A01 T00051043  RH  070%=      5-min Rain = 0
KES1 081701Z 35007KT 01/M04 A3037 RMK A01 T00051041  RH  071%=      5-min Rain = 0
KES1 081702Z 34007KT 01/M04 A3037 RMK A01 T00061043  RH  070%=      5-min Rain = 0
KES1 081703Z 34006KT 01/M04 A3037 RMK A01 T00061044  RH  069%=      5-min Rain = 0
KES1 081704Z 34007KT 01/M04 A3037 RMK A01 T00061043  RH  070%=      5-min Rain = 0
KES1 081705Z 35006KT 01/M04 A3036 RMK A01 T00061042  RH  070%=      5-min Rain = 0
KES1 081706Z 34005KT 01/M04 A3036 RMK A01 T00061040  RH  072%=      5-min Rain = 0
KES1 081707Z 34004KT 01/M04 A3036 RMK A01 T00061039  RH  072%=      5-min Rain = 0
KES1 081708Z 34004KT 01/M04 A3036 RMK A01 T00061035  RH  074%=      5-min Rain = 0
KES1 081709Z 34006KT 01/M04 A3036 RMK A01 T00061036  RH  074%=      5-min Rain = 0
KES1 081710Z 34005KT 01/M04 A3036 RMK A01 T00061038  RH  072%=      5-min Rain = 0
KES1 081711Z 34006KT 01/M04 A3036 RMK A01 T00061039  RH  072%=      5-min Rain = 0
KES1 081712Z 34007KT 01/M04 A3036 RMK A01 T00071041  RH  070%=      5-min Rain = 0
KES1 081713Z 36005KT 01/M04 A3036 RMK A01 T00071042  RH  069%=      5-min Rain = 0
KES1 081714Z 01007KT 01/M04 A3036 RMK A01 T00071043  RH  069%=      5-min Rain = 0
KES1 081715Z 35007KT 01/M05 A3036 RMK A01 T00071046  RH  067%=      5-min Rain = 0
KES1 081716Z 35005KT 01/M04 A3036 RMK A01 T00081044  RH  069%=      5-min Rain = 0
KES1 081717Z 36006KT 01/M04 A3036 RMK A01 T00071042  RH  070%=      5-min Rain = 0
KES1 081718Z 35005KT 01/M04 A3036 RMK A01 T00081044  RH  068%=      5-min Rain = 0
KES1 081719Z 36007KT 01/M04 A3036 RMK A01 T00081042  RH  070%=      5-min Rain = 0
KES1 081720Z 35008KT 01/M05 A3036 RMK A01 T00081047  RH  067%=      5-min Rain = 0
KES1 081721Z 35009KT 01/M05 A3036 RMK A01 T00081051  RH  065%=      5-min Rain = 0
KES1 081722Z 36007KT 01/M05 A3036 RMK A01 T00071053  RH  064%=      5-min Rain = 0
KES1 081723Z 36006KT 01/M05 A3036 RMK A01 T00071047  RH  067%=      5-min Rain = 0
KES1 081724Z 36008KT 01/M05 A3036 RMK A01 T00071050  RH  066%=      5-min Rain = 0
KES1 081725Z 36006KT 01/M05 A3036 RMK A01 T00071049  RH  066%=      5-min Rain = 0
KES1 081726Z 35006KT 01/M05 A3036 RMK A01 T00071045  RH  068%=      5-min Rain = 0
KES1 081727Z 35006KT 01/M05 A3036 RMK A01 T00071045  RH  068%=      5-min Rain = 0
KES1 081728Z 35007KT 01/M04 A3036 RMK A01 T00071044  RH  069%=      5-min Rain = 0
KES1 081729Z 35008KT 01/M05 A3036 RMK A01 T00081049  RH  066%=      5-min Rain = 0
KES1 081730Z 35006KT 01/M05 A3036 RMK A01 T00071051  RH  065%=      5-min Rain = 0
KES1 081731Z 35006KT 01/M05 A3036 RMK A01 T00081047  RH  067%=      5-min Rain = 0
KES1 081732Z 35006KT 01/M04 A3036 RMK A01 T00081043  RH  069%=      5-min Rain = 0
KES1 081733Z 35006KT 01/M04 A3036 RMK A01 T00081044  RH  068%=      5-min Rain = 0
KES1 081734Z 35006KT 01/M05 A3036 RMK A01 T00081049  RH  065%=      5-min Rain = 0
KES1 081735Z 36006KT 01/M05 A3036 RMK A01 T00091048  RH  066%=      5-min Rain = 0
KES1 081736Z 35007KT 01/M05 A3036 RMK A01 T00091049  RH  065%=      5-min Rain = 0
KES1 081737Z 35006KT 01/M05 A3036 RMK A01 T00091049  RH  065%=      5-min Rain = 0
KES1 081738Z 35005KT 01/M05 A3036 RMK A01 T00101049  RH  065%=      5-min Rain = 0
KES1 081739Z 35004KT 01/M05 A3036 RMK A01 T00101048  RH  065%=      5-min Rain = 0.01
KES1 081740Z 35004KT 01/M04 A3036 RMK A01 T00101044  RH  067%=      5-min Rain = 0
KES1 081741Z 35004KT 01/M04 A3036 RMK A01 T00111040  RH  069%=      5-min Rain = 0
KES1 081742Z 35005KT 01/M04 A3036 RMK A01 T00111041  RH  068%=      5-min Rain = 0
KES1 081743Z 34005KT 01/M04 A3036 RMK A01 T00121043  RH  067%=      5-min Rain = 0
KES1 081744Z 35005KT 01/M05 A3036 RMK A01 T00111047  RH  065%=      5-min Rain = 0.01
KES1 081745Z 35005KT 01/M05 A3036 RMK A01 T00111046  RH  066%=      5-min Rain = 0
KES1 081746Z 35005KT 01/M04 A3036 RMK A01 T00121043  RH  067%=      5-min Rain = 0
KES1 081747Z 36005KT 01/M05 A3035 RMK A01 T00121045  RH  066%=      5-min Rain = 0.01
KES1 081748Z 34004KT 01/M05 A3035 RMK A01 T00121048  RH  064%=      5-min Rain = 0
KES1 081749Z 33005KT 01/M04 A3035 RMK A01 T00131044  RH  066%=      5-min Rain = 0
KES1 081750Z 34005KT 01/M04 A3035 RMK A01 T00131042  RH  067%=      5-min Rain = 0.01
KES1 081751Z 35007KT 01/M05 A3035 RMK A01 T00131045  RH  066%=      5-min Rain = 0
KES1 081752Z 36006KT 01/M04 A3035 RMK A01 T00131044  RH  066%=      5-min Rain = 0
KES1 081753Z 35007KT 01/M04 A3035 RMK A01 T00141044  RH  065%=      5-min Rain = 0.01
KES1 081754Z 35007KT 01/M05 A3035 RMK A01 T00141049  RH  063%=      5-min Rain = 0
KES1 081755Z 34008KT 01/M06 A3035 RMK A01 T00141055  RH  060%=      5-min Rain = 0
KES1 081756Z 35007KT 01/M05 A3035 RMK A01 T00131054  RH  061%=      5-min Rain = 0
KES1 081757Z 35007KT 01/M05 A3035 RMK A01 T00141050  RH  063%=      5-min Rain = 0.01
KES1 081758Z 35006KT 01/M05 A3035 RMK A01 T00141048  RH  063%=      5-min Rain = 0
KES1 081759Z 33008KT 01/M05 A3035 RMK A01 T00141048  RH  064%=      5-min Rain = 0
KES1 081800Z 33009KT 01/M05 A3035 RMK A01 T00141053  RH  061%=      5-min Rain = 0.01
KES1 081801Z 33008KT 01/M06 A3035 RMK A01 T00141055  RH  060%=      5-min Rain = 0
KES1 081802Z 33007KT 01/M05 A3035 RMK A01 T00141054  RH  061%=      5-min Rain = 0
KES1 081803Z 33009KT 01/M05 A3035 RMK A01 T00141052  RH  061%=      5-min Rain = 0
KES1 081804Z 34009KT 01/M06 A3035 RMK A01 T00141055  RH  060%=      5-min Rain = 0.01
KES1 081805Z 34008KT 01/M06 A3035 RMK A01 T00141056  RH  060%=      5-min Rain = 0
KES1 081806Z 34008KT 01/M06 A3035 RMK A01 T00141055  RH  060%=      5-min Rain = 0
KES1 081807Z 34008KT 01/M05 A3035 RMK A01 T00141053  RH  061%=      5-min Rain = 0
KES1 081808Z 33008KT 02/M05 A3035 RMK A01 T00151052  RH  061%=      5-min Rain = 0.01
KES1 081809Z 34007KT 02/M06 A3035 RMK A01 T00151056  RH  059%=      5-min Rain = 0
KES1 081810Z 34008KT 02/M06 A3034 RMK A01 T00151056  RH  059%=      5-min Rain = 0
KES1 081811Z 34008KT 01/M05 A3034 RMK A01 T00141054  RH  060%=      5-min Rain = 0
KES1 081812Z 34008KT 01/M05 A3034 RMK A01 T00141053  RH  061%=      5-min Rain = 0
KES1 081813Z 34008KT 02/M05 A3034 RMK A01 T00151054  RH  060%=      5-min Rain = 0.01
KES1 081814Z 34008KT 02/M05 A3034 RMK A01 T00151053  RH  061%=      5-min Rain = 0
KES1 081815Z 34007KT 02/M06 A3034 RMK A01 T00151056  RH  059%=      5-min Rain = 0
KES1 081816Z 34007KT 02/M06 A3034 RMK A01 T00151057  RH  059%=      5-min Rain = 0.01
KES1 081817Z 34007KT 02/M06 A3034 RMK A01 T00161056  RH  059%=      5-min Rain = 0
KES1 081818Z 33006KT 02/M06 A3034 RMK A01 T00161055  RH  059%=      5-min Rain = 0
KES1 081819Z 35006KT 02/M06 A3034 RMK A01 T00161056  RH  059%=      5-min Rain = 0
KES1 081820Z 35006KT 02/M05 A3034 RMK A01 T00171050  RH  061%=      5-min Rain = 0.01
KES1 081821Z 34007KT 02/M05 A3034 RMK A01 T00171052  RH  060%=      5-min Rain = 0
KES1 081822Z 33007KT 02/M05 A3034 RMK A01 T00181053  RH  059%=      5-min Rain = 0
KES1 081823Z 33007KT 02/M06 A3034 RMK A01 T00181056  RH  058%=      5-min Rain = 0.01
KES1 081824Z 33007KT 02/M06 A3034 RMK A01 T00171059  RH  057%=      5-min Rain = 0
KES1 081825Z 34005KT 02/M06 A3034 RMK A01 T00171058  RH  057%=      5-min Rain = 0
KES1 081826Z 34005KT 02/M05 A3034 RMK A01 T00171054  RH  059%=      5-min Rain = 0
KES1 081827Z 34006KT 02/M06 A3033 RMK A01 T00171055  RH  059%=      5-min Rain = 0.01
KES1 081828Z 32007KT 02/M05 A3033 RMK A01 T00171051  RH  060%=      5-min Rain = 0
KES1 081829Z 32007KT 02/M05 A3033 RMK A01 T00181048  RH  062%=      5-min Rain = 0
KES1 081830Z 32008KT 02/M05 A3033 RMK A01 T00181051  RH  060%=      5-min Rain = 0.01
KES1 081831Z 33007KT 02/M05 A3033 RMK A01 T00181054  RH  059%=      5-min Rain = 0
KES1 081832Z 32007KT 02/M05 A3033 RMK A01 T00181053  RH  059%=      5-min Rain = 0
KES1 081833Z 32009KT 02/M05 A3033 RMK A01 T00181050  RH  061%=      5-min Rain = 0.01
KES1 081834Z 34009KT 02/M05 A3033 RMK A01 T00181046  RH  063%=      5-min Rain = 0
KES1 081835Z 32007KT 02/M05 A3033 RMK A01 T00191049  RH  061%=      5-min Rain = 0
KES1 081836Z 33007KT 02/M05 A3033 RMK A01 T00181047  RH  062%=      5-min Rain = 0
KES1 081837Z 33008KT 02/M05 A3033 RMK A01 T00191047  RH  062%=      5-min Rain = 0
KES1 081838Z 34008KT 02/M05 A3033 RMK A01 T00191050  RH  060%=      5-min Rain = 0
KES1 081839Z 32008KT 02/M05 A3033 RMK A01 T00181048  RH  061%=      5-min Rain = 0
KES1 081840Z 32009KT 02/M05 A3033 RMK A01 T00191050  RH  060%=      5-min Rain = 0
KES1 081841Z 33010KT 02/M05 A3033 RMK A01 T00191049  RH  061%=      5-min Rain = 0
KES1 081842Z 35007KT 02/M05 A3033 RMK A01 T00191054  RH  058%=      5-min Rain = 0
KES1 081843Z 35007KT 02/M05 A3033 RMK A01 T00191052  RH  059%=      5-min Rain = 0
KES1 081844Z 34006KT 02/M05 A3033 RMK A01 T00191053  RH  059%=      5-min Rain = 0
KES1 081845Z 34007KT 02/M06 A3033 RMK A01 T00191055  RH  058%=      5-min Rain = 0
KES1 081846Z 35008KT 02/M05 A3033 RMK A01 T00191054  RH  059%=      5-min Rain = 0
KES1 081847Z 34009KT 02/M05 A3033 RMK A01 T00191052  RH  059%=      5-min Rain = 0
KES1 081848Z 33007KT 02/M06 A3032 RMK A01 T00191055  RH  058%=      5-min Rain = 0
KES1 081849Z 34006KT 02/M05 A3032 RMK A01 T00201049  RH  060%=      5-min Rain = 0
KES1 081850Z 34006KT 02/M05 A3032 RMK A01 T00191052  RH  059%=      5-min Rain = 0
KES1 081851Z 34006KT 02/M05 A3032 RMK A01 T00191050  RH  060%=      5-min Rain = 0
KES1 081852Z 31009KT 02/M05 A3032 RMK A01 T00201045  RH  062%=      5-min Rain = 0
KES1 081853Z 31010KT 02/M05 A3032 RMK A01 T00201046  RH  061%=      5-min Rain = 0
KES1 081854Z 32008KT 02/M05 A3032 RMK A01 T00201052  RH  059%=      5-min Rain = 0
KES1 081855Z 33006KT 02/M05 A3032 RMK A01 T00201049  RH  060%=      5-min Rain = 0
KES1 081856Z 34006KT 02/M04 A3032 RMK A01 T00211043  RH  063%=      5-min Rain = 0
KES1 081857Z 33005KT 02/M04 A3032 RMK A01 T00211043  RH  063%=      5-min Rain = 0
KES1 081858Z 33006KT 02/M04 A3032 RMK A01 T00211043  RH  063%=      5-min Rain = 0
KES1 081859Z 34007KT 02/M05 A3032 RMK A01 T00211047  RH  061%=      5-min Rain = 0
KES1 081900Z 34007KT 02/M04 A3032 RMK A01 T00211044  RH  062%=      5-min Rain = 0
KES1 081901Z 32006KT 02/M05 A3032 RMK A01 T00211045  RH  061%=      5-min Rain = 0
KES1 081902Z 32008KT 02/M05 A3032 RMK A01 T00211048  RH  060%=      5-min Rain = 0
KES1 081903Z 32007KT 02/M05 A3031 RMK A01 T00211050  RH  059%=      5-min Rain = 0
KES1 081904Z 32008KT 02/M04 A3031 RMK A01 T00221043  RH  062%=      5-min Rain = 0.01
KES1 081905Z 31009KT 02/M05 A3031 RMK A01 T00221047  RH  060%=      5-min Rain = 0
KES1 081906Z 31008KT 02/M05 A3031 RMK A01 T00221046  RH  061%=      5-min Rain = 0
KES1 081907Z 31008KT 02/M04 A3031 RMK A01 T00221043  RH  062%=      5-min Rain = 0
KES1 081908Z 31006KT 02/M05 A3031 RMK A01 T00231045  RH  061%=      5-min Rain = 0
KES1 081909Z 31007KT 02/M04 A3031 RMK A01 T00231042  RH  062%=      5-min Rain = 0
KES1 081910Z 32007KT 02/M04 A3031 RMK A01 T00241041  RH  062%=      5-min Rain = 0
KES1 081911Z 33007KT 02/M05 A3031 RMK A01 T00241045  RH  060%=      5-min Rain = 0
KES1 081912Z 32006KT 02/M05 A3031 RMK A01 T00241047  RH  060%=      5-min Rain = 0
KES1 081913Z 31006KT 02/M04 A3031 RMK A01 T00241039  RH  063%=      5-min Rain = 0
KES1 081914Z 31005KT 03/M04 A3031 RMK A01 T00251035  RH  065%=      5-min Rain = 0
KES1 081915Z 35007KT 03/M04 A3031 RMK A01 T00271035  RH  064%=      5-min Rain = 0
KES1 081916Z 34007KT 03/M05 A3031 RMK A01 T00261049  RH  058%=      5-min Rain = 0
KES1 081917Z 33006KT 03/M05 A3031 RMK A01 T00251048  RH  059%=      5-min Rain = 0
KES1 081918Z 31006KT 03/M04 A3031 RMK A01 T00251035  RH  064%=      5-min Rain = 0
KES1 081919Z 32007KT 03/M04 A3031 RMK A01 T00261035  RH  064%=      5-min Rain = 0
KES1 081920Z 33007KT 03/M04 A3031 RMK A01 T00271036  RH  063%=      5-min Rain = 0
KES1 081921Z 32006KT 03/M05 A3031 RMK A01 T00271045  RH  059%=      5-min Rain = 0
KES1 081922Z 32009KT 03/M05 A3031 RMK A01 T00261046  RH  059%=      5-min Rain = 0
KES1 081923Z 32008KT 03/M05 A3031 RMK A01 T00261049  RH  058%=      5-min Rain = 0
KES1 081924Z 31008KT 03/M04 A3031 RMK A01 T00261040  RH  062%=      5-min Rain = 0
KES1 081925Z 33007KT 03/M04 A3031 RMK A01 T00261043  RH  060%=      5-min Rain = 0
KES1 081926Z 33008KT 03/M05 A3031 RMK A01 T00261050  RH  057%=      5-min Rain = 0
KES1 081927Z 33009KT 03/M05 A3031 RMK A01 T00261051  RH  057%=      5-min Rain = 0
KES1 081928Z 34007KT 03/M05 A3031 RMK A01 T00251048  RH  058%=      5-min Rain = 0
KES1 081929Z 33007KT 03/M04 A303 RMK A01 T00251044  RH  060%=      5-min Rain = 0
KES1 081930Z 33009KT 03/M05 A303 RMK A01 T00261045  RH  059%=      5-min Rain = 0
KES1 081931Z 33008KT 03/M05 A303 RMK A01 T00261050  RH  057%=      5-min Rain = 0
KES1 081932Z 32009KT 03/M05 A303 RMK A01 T00261051  RH  057%=      5-min Rain = 0
KES1 081933Z 31009KT 03/M05 A303 RMK A01 T00261050  RH  057%=      5-min Rain = 0
KES1 081934Z 31010KT 03/M04 A303 RMK A01 T00271043  RH  060%=      5-min Rain = 0
KES1 081935Z 32009KT 03/M05 A303 RMK A01 T00281045  RH  059%=      5-min Rain = 0
KES1 081936Z 32010KT 03/M05 A303 RMK A01 T00281048  RH  058%=      5-min Rain = 0
KES1 081937Z 32008KT 03/M06 A3031 RMK A01 T00271055  RH  055%=      5-min Rain = 0
KES1 081938Z 32009KT 03/M05 A303 RMK A01 T00261052  RH  056%=      5-min Rain = 0
KES1 081939Z 32010KT 03/M05 A303 RMK A01 T00271047  RH  058%=      5-min Rain = 0
KES1 081940Z 31010KT 03/M05 A303 RMK A01 T00271050  RH  057%=      5-min Rain = 0
KES1 081941Z 32010KT 03/M05 A303 RMK A01 T00271051  RH  057%=      5-min Rain = 0
KES1 081942Z 32008KT 03/M05 A303 RMK A01 T00281049  RH  057%=      5-min Rain = 0
KES1 081943Z 31008KT 03/M05 A303 RMK A01 T00281046  RH  058%=      5-min Rain = 0
KES1 081944Z 32008KT 03/M04 A303 RMK A01 T00291041  RH  060%=      5-min Rain = 0
KES1 081945Z 31008KT 03/M04 A303 RMK A01 T00301038  RH  061%=      5-min Rain = 0
KES1 081946Z 32009KT 03/M04 A303 RMK A01 T00311041  RH  059%=      5-min Rain = 0
KES1 081947Z 32009KT 03/M05 A303 RMK A01 T00311045  RH  057%=      5-min Rain = 0
KES1 081948Z 32007KT 03/M05 A303 RMK A01 T00311048  RH  056%=      5-min Rain = 0
KES1 081949Z 32007KT 03/M05 A303 RMK A01 T00301049  RH  056%=      5-min Rain = 0
KES1 081950Z 32007KT 03/M05 A303 RMK A01 T00301048  RH  056%=      5-min Rain = 0
KES1 081951Z 31008KT 03/M05 A303 RMK A01 T00301048  RH  056%=      5-min Rain = 0
KES1 081952Z 31007KT 03/M05 A303 RMK A01 T00311050  RH  055%=      5-min Rain = 0
KES1 081953Z 32008KT 03/M05 A3029 RMK A01 T00311048  RH  056%=      5-min Rain = 0
KES1 081954Z 32009KT 03/M05 A3029 RMK A01 T00311048  RH  056%=      5-min Rain = 0
KES1 081955Z 31009KT 03/M05 A3029 RMK A01 T00311049  RH  056%=      5-min Rain = 0
KES1 081956Z 32009KT 03/M05 A3029 RMK A01 T00311046  RH  057%=      5-min Rain = 0
KES1 081957Z 33010KT 03/M05 A3029 RMK A01 T00311049  RH  056%=      5-min Rain = 0
KES1 081958Z 33010KT 03/M05 A3029 RMK A01 T00311051  RH  055%=      5-min Rain = 0
KES1 081959Z 33009KT 03/M05 A3029 RMK A01 T00301053  RH  054%=      5-min Rain = 0
KES1 082000Z 33008KT 03/M05 A3029 RMK A01 T00311050  RH  055%=      5-min Rain = 0
KES1 082001Z 33009KT 03/M05 A3029 RMK A01 T00301054  RH  054%=      5-min Rain = 0
KES1 082002Z 32009KT 03/M05 A3029 RMK A01 T00301050  RH  056%=      5-min Rain = 0
KES1 082003Z 32007KT 03/M05 A3029 RMK A01 T00311047  RH  056%=      5-min Rain = 0
KES1 082004Z 34007KT 03/M04 A3029 RMK A01 T00321044  RH  057%=      5-min Rain = 0
KES1 082005Z 33008KT 03/M05 A3029 RMK A01 T00321045  RH  057%=      5-min Rain = 0
KES1 082006Z 32007KT 03/M05 A3029 RMK A01 T00331045  RH  057%=      5-min Rain = 0
KES1 082007Z 31009KT 03/M04 A3029 RMK A01 T00331042  RH  058%=      5-min Rain = 0
KES1 082008Z 30008KT 03/M04 A3029 RMK A01 T00341041  RH  058%=      5-min Rain = 0
KES1 082009Z 30007KT 03/M04 A3029 RMK A01 T00341043  RH  057%=      5-min Rain = 0
KES1 082010Z 30007KT 03/M04 A3029 RMK A01 T00341040  RH  058%=      5-min Rain = 0
KES1 082011Z 30007KT 04/M04 A3029 RMK A01 T00351038  RH  059%=      5-min Rain = 0
KES1 082012Z 31007KT 04/M04 A3029 RMK A01 T00351041  RH  057%=      5-min Rain = 0
KES1 082013Z 31007KT 04/M04 A3029 RMK A01 T00351042  RH  057%=      5-min Rain = 0
KES1 082014Z 31006KT 04/M04 A3029 RMK A01 T00351040  RH  058%=      5-min Rain = 0
KES1 082015Z 32007KT 04/M04 A3029 RMK A01 T00351038  RH  059%=      5-min Rain = 0
KES1 082016Z 32008KT 04/M04 A3029 RMK A01 T00361038  RH  058%=      5-min Rain = 0
KES1 082017Z 33008KT 04/M05 A3029 RMK A01 T00371047  RH  054%=      5-min Rain = 0
KES1 082018Z 33009KT 04/M05 A3029 RMK A01 T00361047  RH  055%=      5-min Rain = 0
KES1 082019Z 33008KT 04/M05 A3029 RMK A01 T00351053  RH  052%=      5-min Rain = 0
KES1 082020Z 34007KT 03/M05 A3029 RMK A01 T00341053  RH  053%=      5-min Rain = 0
KES1 082021Z 34007KT 03/M05 A3029 RMK A01 T00341052  RH  053%=      5-min Rain = 0
KES1 082022Z 33008KT 03/M05 A3029 RMK A01 T00341049  RH  054%=      5-min Rain = 0
KES1 082023Z 33008KT 04/M04 A3029 RMK A01 T00351043  RH  057%=      5-min Rain = 0
KES1 082024Z 33008KT 04/M05 A3029 RMK A01 T00361049  RH  054%=      5-min Rain = 0
KES1 082025Z 33008KT 04/M05 A3029 RMK A01 T00361050  RH  053%=      5-min Rain = 0
KES1 082026Z 33007KT 04/M05 A3029 RMK A01 T00361045  RH  055%=      5-min Rain = 0
KES1 082027Z 32007KT 04/M04 A3029 RMK A01 T00361042  RH  056%=      5-min Rain = 0
KES1 082028Z 33008KT 04/M05 A3029 RMK A01 T00361047  RH  054%=      5-min Rain = 0
KES1 082029Z 33007KT 04/M05 A3029 RMK A01 T00371052  RH  052%=      5-min Rain = 0
KES1 082030Z 32009KT 04/M05 A3029 RMK A01 T00371046  RH  055%=      5-min Rain = 0
KES1 082031Z 33008KT 04/M05 A3028 RMK A01 T00361052  RH  052%=      5-min Rain = 0
KES1 082032Z 31009KT 04/M05 A3028 RMK A01 T00371051  RH  053%=      5-min Rain = 0
KES1 082033Z 32008KT 04/M05 A3028 RMK A01 T00361050  RH  053%=      5-min Rain = 0
KES1 082034Z 33006KT 04/M05 A3028 RMK A01 T00371051  RH  053%=      5-min Rain = 0
KES1 082035Z 32006KT 04/M04 A3028 RMK A01 T00371044  RH  056%=      5-min Rain = 0
KES1 082036Z 33006KT 04/M05 A3028 RMK A01 T00371050  RH  053%=      5-min Rain = 0
KES1 082037Z 34007KT 04/M05 A3028 RMK A01 T00371053  RH  052%=      5-min Rain = 0
KES1 082038Z 34006KT 04/M05 A3028 RMK A01 T00371046  RH  055%=      5-min Rain = 0
KES1 082039Z 33005KT 04/M05 A3028 RMK A01 T00381051  RH  052%=      5-min Rain = 0
KES1 082040Z 33006KT 04/M05 A3028 RMK A01 T00381045  RH  055%=      5-min Rain = 0
KES1 082041Z 33007KT 04/M05 A3028 RMK A01 T00381045  RH  054%=      5-min Rain = 0
KES1 082042Z 32006KT 04/M05 A3028 RMK A01 T00391051  RH  052%=      5-min Rain = 0
KES1 082043Z 32005KT 04/M05 A3028 RMK A01 T00391050  RH  052%=      5-min Rain = 0
KES1 082044Z 33006KT 04/M05 A3028 RMK A01 T00391048  RH  053%=      5-min Rain = 0
KES1 082045Z 31005KT 04/M04 A3028 RMK A01 T00401042  RH  055%=      5-min Rain = 0
KES1 082046Z 31005KT 04/M04 A3028 RMK A01 T00411040  RH  056%=      5-min Rain = 0
KES1 082047Z 31006KT 04/M04 A3028 RMK A01 T00421041  RH  055%=      5-min Rain = 0
KES1 082048Z 31006KT 04/M04 A3028 RMK A01 T00421039  RH  056%=      5-min Rain = 0
KES1 082049Z 30006KT 04/M04 A3028 RMK A01 T00421043  RH  054%=      5-min Rain = 0
KES1 082050Z 30006KT 04/M04 A3028 RMK A01 T00431035  RH  057%=      5-min Rain = 0
KES1 082051Z 30004KT 04/M04 A3028 RMK A01 T00421044  RH  053%=      5-min Rain = 0
KES1 082052Z 29004KT 04/M05 A3028 RMK A01 T00421045  RH  053%=      5-min Rain = 0
KES1 082053Z 33005KT 04/M04 A3028 RMK A01 T00421040  RH  055%=      5-min Rain = 0
KES1 082054Z 33005KT 04/M05 A3028 RMK A01 T00421048  RH  052%=      5-min Rain = 0
KES1 082055Z 31005KT 04/M05 A3028 RMK A01 T00421049  RH  052%=      5-min Rain = 0
KES1 082056Z 31006KT 04/M05 A3028 RMK A01 T00411046  RH  053%=      5-min Rain = 0
KES1 082057Z 31007KT 04/M05 A3028 RMK A01 T00421051  RH  051%=      5-min Rain = 0
KES1 082058Z 30006KT 04/M05 A3028 RMK A01 T00421053  RH  050%=      5-min Rain = 0
KES1 082059Z 30006KT 04/M05 A3028 RMK A01 T00421047  RH  052%=      5-min Rain = 0
KES1 082100Z 30004KT 04/M05 A3028 RMK A01 T00421048  RH  052%=      5-min Rain = 0
KES1 082101Z 30005KT 04/M05 A3028 RMK A01 T00431046  RH  052%=      5-min Rain = 0
KES1 082102Z 30005KT 04/M05 A3028 RMK A01 T00441051  RH  050%=      5-min Rain = 0
KES1 082103Z 30005KT 04/M05 A3028 RMK A01 T00441046  RH  052%=      5-min Rain = 0
KES1 082104Z 32005KT 05/M05 A3028 RMK A01 T00451045  RH  052%=      5-min Rain = 0
KES1 082105Z 31005KT 05/M04 A3028 RMK A01 T00451039  RH  054%=      5-min Rain = 0
KES1 082106Z 29004KT 05/M05 A3028 RMK A01 T00471047  RH  051%=      5-min Rain = 0
KES1 082107Z 30004KT 05/M05 A3027 RMK A01 T00471053  RH  048%=      5-min Rain = 0
KES1 082108Z 31007KT 05/M05 A3027 RMK A01 T00481048  RH  050%=      5-min Rain = 0
KES1 082109Z 32007KT 05/M05 A3027 RMK A01 T00481051  RH  048%=      5-min Rain = 0
KES1 082110Z 32006KT 05/M05 A3027 RMK A01 T00481054  RH  048%=      5-min Rain = 0
KES1 082111Z 32006KT 05/M06 A3027 RMK A01 T00471055  RH  047%=      5-min Rain = 0
KES1 082112Z 30007KT 05/M04 A3027 RMK A01 T00481042  RH  052%=      5-min Rain = 0
KES1 082113Z 30007KT 05/M05 A3027 RMK A01 T00501046  RH  050%=      5-min Rain = 0
KES1 082114Z 30005KT 05/M05 A3027 RMK A01 T00501053  RH  047%=      5-min Rain = 0
KES1 082115Z 31004KT 05/M05 A3027 RMK A01 T00501050  RH  048%=      5-min Rain = 0
KES1 082116Z 29005KT 05/M05 A3027 RMK A01 T00511046  RH  050%=      5-min Rain = 0
KES1 082117Z 30004KT 05/M06 A3027 RMK A01 T00511055  RH  046%=      5-min Rain = 0
KES1 082118Z 29005KT 05/M05 A3027 RMK A01 T00511053  RH  047%=      5-min Rain = 0
KES1 082119Z 31004KT 05/M06 A3027 RMK A01 T00501057  RH  046%=      5-min Rain = 0
KES1 082120Z 30004KT 05/M05 A3027 RMK A01 T00491052  RH  048%=      5-min Rain = 0
KES1 082121Z 30004KT 05/M04 A3027 RMK A01 T00501041  RH  052%=      5-min Rain = 0
KES1 082122Z 32005KT 05/M04 A3027 RMK A01 T00511041  RH  052%=      5-min Rain = 0
KES1 082123Z 32004KT 05/M05 A3027 RMK A01 T00511046  RH  049%=      5-min Rain = 0
KES1 082124Z 31004KT 05/M06 A3027 RMK A01 T00511057  RH  046%=      5-min Rain = 0
KES1 082125Z 30005KT 05/M06 A3027 RMK A01 T00491060  RH  045%=      5-min Rain = 0
KES1 082126Z 31005KT 05/M05 A3027 RMK A01 T00491050  RH  049%=      5-min Rain = 0
KES1 082127Z 32004KT 05/M05 A3027 RMK A01 T00491050  RH  049%=      5-min Rain = 0
KES1 082128Z 30004KT 05/M05 A3027 RMK A01 T00491048  RH  049%=      5-min Rain = 0
KES1 082129Z 31004KT 05/M06 A3027 RMK A01 T00491058  RH  046%=      5-min Rain = 0
KES1 082130Z 30004KT 05/M07 A3027 RMK A01 T00481066  RH  043%=      5-min Rain = 0
KES1 082131Z 32004KT 05/M05 A3027 RMK A01 T00481053  RH  048%=      5-min Rain = 0
KES1 082132Z 30005KT 05/M05 A3027 RMK A01 T00491049  RH  049%=      5-min Rain = 0
KES1 082133Z 30005KT 05/M05 A3027 RMK A01 T00491052  RH  048%=      5-min Rain = 0
KES1 082134Z 29005KT 05/M05 A3027 RMK A01 T00501054  RH  047%=      5-min Rain = 0
KES1 082135Z 29005KT 05/M06 A3026 RMK A01 T00501061  RH  045%=      5-min Rain = 0
KES1 082136Z 31006KT 05/M06 A3026 RMK A01 T00491060  RH  045%=      5-min Rain = 0
KES1 082137Z 29006KT 05/M06 A3026 RMK A01 T00491057  RH  046%=      5-min Rain = 0
KES1 082138Z 30007KT 05/M06 A3026 RMK A01 T00491059  RH  045%=      5-min Rain = 0
KES1 082139Z 30007KT 05/M06 A3026 RMK A01 T00491062  RH  045%=      5-min Rain = 0
KES1 082140Z 30006KT 05/M06 A3026 RMK A01 T00491062  RH  044%=      5-min Rain = 0
KES1 082141Z 30006KT 05/M06 A3026 RMK A01 T00491063  RH  044%=      5-min Rain = 0
KES1 082142Z 29006KT 05/M06 A3026 RMK A01 T00481060  RH  045%=      5-min Rain = 0
KES1 082143Z 30005KT 05/M06 A3026 RMK A01 T00481059  RH  046%=      5-min Rain = 0
KES1 082144Z 30004KT 05/M05 A3026 RMK A01 T00481053  RH  048%=      5-min Rain = 0
KES1 082145Z 31005KT 05/M06 A3026 RMK A01 T00481056  RH  047%=      5-min Rain = 0
KES1 082146Z 31004KT 05/M05 A3026 RMK A01 T00481054  RH  047%=      5-min Rain = 0
KES1 082147Z 32004KT 05/M05 A3026 RMK A01 T00491054  RH  047%=      5-min Rain = 0
KES1 082148Z 32004KT 05/M05 A3026 RMK A01 T00501047  RH  049%=      5-min Rain = 0
KES1 082149Z 30003KT 05/M04 A3026 RMK A01 T00511043  RH  051%=      5-min Rain = 0
KES1 082150Z 29003KT 05/M05 A3026 RMK A01 T00521049  RH  048%=      5-min Rain = 0
KES1 082151Z 31005KT 05/M06 A3026 RMK A01 T00531057  RH  045%=      5-min Rain = 0
KES1 082152Z 31004KT 05/M06 A3026 RMK A01 T00541060  RH  044%=      5-min Rain = 0
KES1 082153Z 30004KT 05/M06 A3026 RMK A01 T00531057  RH  045%=      5-min Rain = 0
KES1 082154Z 31005KT 05/M06 A3026 RMK A01 T00541063  RH  043%=      5-min Rain = 0
KES1 082155Z 32004KT 05/M07 A3026 RMK A01 T00531066  RH  042%=      5-min Rain = 0
KES1 082156Z 32004KT 05/M06 A3026 RMK A01 T00541064  RH  042%=      5-min Rain = 0
KES1 082157Z 31004KT 05/M05 A3026 RMK A01 T00531052  RH  046%=      5-min Rain = 0
KES1 082158Z 30004KT 05/M05 A3026 RMK A01 T00531049  RH  048%=      5-min Rain = 0
KES1 082159Z 30004KT 05/M05 A3026 RMK A01 T00531053  RH  046%=      5-min Rain = 0
KES1 082200Z 29005KT 05/M06 A3026 RMK A01 T00541055  RH  045%=      5-min Rain = 0
KES1 082201Z 29005KT 05/M06 A3026 RMK A01 T00541062  RH  043%=      5-min Rain = 0
KES1 082202Z 27004KT 05/M06 A3026 RMK A01 T00541064  RH  042%=      5-min Rain = 0
KES1 082203Z 28005KT 05/M06 A3026 RMK A01 T00541061  RH  043%=      5-min Rain = 0
KES1 082204Z 28006KT 06/M06 A3026 RMK A01 T00561062  RH  042%=      5-min Rain = 0
KES1 082205Z 27006KT 06/M07 A3026 RMK A01 T00561068  RH  040%=      5-min Rain = 0
KES1 082206Z 27004KT 06/M06 A3026 RMK A01 T00561062  RH  042%=      5-min Rain = 0
KES1 082207Z 27004KT 06/M06 A3026 RMK A01 T00561061  RH  042%=      5-min Rain = 0
KES1 082208Z 28005KT 06/M06 A3026 RMK A01 T00561064  RH  042%=      5-min Rain = 0
KES1 082209Z 27005KT 06/M06 A3026 RMK A01 T00561058  RH  044%=      5-min Rain = 0
KES1 082210Z 28004KT 06/M06 A3026 RMK A01 T00561055  RH  044%=      5-min Rain = 0
KES1 082211Z 28004KT 06/M06 A3026 RMK A01 T00571059  RH  043%=      5-min Rain = 0
KES1 082212Z 27004KT 06/M07 A3026 RMK A01 T00571067  RH  040%=      5-min Rain = 0
KES1 082213Z 26006KT 06/M06 A3026 RMK A01 T00571058  RH  043%=      5-min Rain = 0
KES1 082214Z 26005KT 06/M06 A3026 RMK A01 T00571057  RH  043%=      5-min Rain = 0
KES1 082215Z 26004KT 06/M06 A3026 RMK A01 T00571057  RH  043%=      5-min Rain = 0
KES1 082216Z 27006KT 06/M06 A3026 RMK A01 T00571059  RH  043%=      5-min Rain = 0
KES1 082217Z 27005KT 06/M06 A3026 RMK A01 T00581059  RH  043%=      5-min Rain = 0
KES1 082218Z 27005KT 06/M06 A3026 RMK A01 T00581057  RH  043%=      5-min Rain = 0
KES1 082219Z 27005KT 06/M06 A3026 RMK A01 T00581061  RH  042%=      5-min Rain = 0
KES1 082220Z 27006KT 06/M06 A3026 RMK A01 T00581062  RH  042%=      5-min Rain = 0
KES1 082221Z 25005KT 06/M06 A3026 RMK A01 T00571060  RH  043%=      5-min Rain = 0
KES1 082222Z 27005KT 06/M06 A3026 RMK A01 T00581056  RH  044%=      5-min Rain = 0
KES1 082223Z 26006KT 06/M05 A3026 RMK A01 T00581053  RH  045%=      5-min Rain = 0
KES1 082224Z 25004KT 06/M05 A3026 RMK A01 T00571053  RH  045%=      5-min Rain = 0
KES1 082225Z 26004KT 06/M05 A3026 RMK A01 T00581048  RH  046%=      5-min Rain = 0
KES1 082226Z 27005KT 06/M05 A3026 RMK A01 T00591051  RH  045%=      5-min Rain = 0
KES1 082227Z 26006KT 06/M05 A3026 RMK A01 T00581054  RH  044%=      5-min Rain = 0
KES1 082228Z 27005KT 06/M06 A3026 RMK A01 T00591058  RH  043%=      5-min Rain = 0
KES1 082229Z 27005KT 06/M06 A3026 RMK A01 T00581056  RH  044%=      5-min Rain = 0
KES1 082230Z 26003KT 06/M06 A3026 RMK A01 T00581056  RH  044%=      5-min Rain = 0
KES1 082231Z 26005KT 06/M06 A3026 RMK A01 T00581058  RH  043%=      5-min Rain = 0
KES1 082232Z 26004KT 06/M06 A3026 RMK A01 T00591055  RH  044%=      5-min Rain = 0
KES1 082233Z 25004KT 06/M06 A3026 RMK A01 T00591055  RH  044%=      5-min Rain = 0
KES1 082234Z 26004KT 06/M05 A3026 RMK A01 T00591054  RH  044%=      5-min Rain = 0
KES1 082235Z 27006KT 06/M05 A3026 RMK A01 T00581054  RH  044%=      5-min Rain = 0
KES1 082236Z 27005KT 06/M06 A3026 RMK A01 T00581056  RH  044%=      5-min Rain = 0
KES1 082237Z 27004KT 06/M06 A3026 RMK A01 T00571056  RH  044%=      5-min Rain = 0
KES1 082238Z 27005KT 06/M06 A3026 RMK A01 T00571058  RH  043%=      5-min Rain = 0
KES1 082239Z 26005KT 06/M06 A3026 RMK A01 T00571060  RH  043%=      5-min Rain = 0
KES1 082240Z 27005KT 06/M06 A3026 RMK A01 T00561059  RH  043%=      5-min Rain = 0
KES1 082241Z 27005KT 06/M05 A3026 RMK A01 T00561054  RH  045%=      5-min Rain = 0
KES1 082242Z 27005KT 06/M05 A3026 RMK A01 T00561051  RH  046%=      5-min Rain = 0
KES1 082243Z 27005KT 06/M05 A3027 RMK A01 T00561051  RH  046%=      5-min Rain = 0
KES1 082244Z 28005KT 06/M05 A3027 RMK A01 T00561051  RH  046%=      5-min Rain = 0
KES1 082245Z 26005KT 06/M05 A3027 RMK A01 T00561054  RH  045%=      5-min Rain = 0
KES1 082246Z 25005KT 06/M05 A3027 RMK A01 T00561052  RH  046%=      5-min Rain = 0
KES1 082247Z 25004KT 06/M05 A3026 RMK A01 T00561052  RH  046%=      5-min Rain = 0
KES1 082248Z 25003KT 06/M05 A3026 RMK A01 T00561046  RH  048%=      5-min Rain = 0
KES1 082249Z 27003KT 06/M05 A3026 RMK A01 T00561045  RH  048%=      5-min Rain = 0
KES1 082250Z 25002KT 06/M04 A3026 RMK A01 T00561044  RH  049%=      5-min Rain = 0
KES1 082251Z 27003KT 06/M04 A3026 RMK A01 T00561041  RH  050%=      5-min Rain = 0
KES1 082252Z 26002KT 06/M04 A3026 RMK A01 T00571044  RH  048%=      5-min Rain = 0
KES1 082253Z 27003KT 06/M05 A3026 RMK A01 T00571046  RH  047%=      5-min Rain = 0
KES1 082254Z 27003KT 06/M05 A3026 RMK A01 T00571052  RH  045%=      5-min Rain = 0
KES1 082255Z 25003KT 06/M05 A3026 RMK A01 T00571051  RH  046%=      5-min Rain = 0
KES1 082256Z 26003KT 06/M05 A3026 RMK A01 T00561050  RH  046%=      5-min Rain = 0
KES1 082257Z 25003KT 06/M05 A3026 RMK A01 T00561048  RH  047%=      5-min Rain = 0
KES1 082258Z 25003KT 06/M05 A3026 RMK A01 T00551050  RH  046%=      5-min Rain = 0
KES1 082259Z 26003KT 06/M05 A3026 RMK A01 T00551048  RH  047%=      5-min Rain = 0
KES1 082300Z 25003KT 06/M05 A3026 RMK A01 T00551048  RH  048%=      5-min Rain = 0
KES1 082301Z 26003KT 06/M05 A3027 RMK A01 T00551048  RH  047%=      5-min Rain = 0
KES1 082302Z 25003KT 05/M05 A3027 RMK A01 T00541046  RH  049%=      5-min Rain = 0
KES1 082303Z 24003KT 05/M04 A3027 RMK A01 T00541042  RH  050%=      5-min Rain = 0
KES1 082304Z 24004KT 05/M04 A3027 RMK A01 T00531042  RH  050%=      5-min Rain = 0
KES1 082305Z 25004KT 05/M04 A3027 RMK A01 T00531042  RH  050%=      5-min Rain = 0
KES1 082306Z 25004KT 05/M04 A3027 RMK A01 T00521042  RH  051%=      5-min Rain = 0
KES1 082307Z 24004KT 05/M04 A3027 RMK A01 T00511043  RH  051%=      5-min Rain = 0
KES1 082308Z 24004KT 05/M04 A3027 RMK A01 T00511042  RH  051%=      5-min Rain = 0
KES1 082309Z 24003KT 05/M04 A3027 RMK A01 T00501042  RH  051%=      5-min Rain = 0
KES1 082310Z 23003KT 05/M04 A3026 RMK A01 T00491041  RH  052%=      5-min Rain = 0
KES1 082311Z 24004KT 05/M04 A3026 RMK A01 T00491039  RH  053%=      5-min Rain = 0
KES1 082312Z 24003KT 05/M04 A3026 RMK A01 T00491039  RH  053%=      5-min Rain = 0
KES1 082313Z 24004KT 05/M04 A3026 RMK A01 T00481038  RH  054%=      5-min Rain = 0
KES1 082314Z 24004KT 05/M04 A3026 RMK A01 T00481038  RH  054%=      5-min Rain = 0
KES1 082315Z 23004KT 05/M04 A3026 RMK A01 T00471037  RH  054%=      5-min Rain = 0
KES1 082316Z 23004KT 05/M04 A3026 RMK A01 T00461037  RH  055%=      5-min Rain = 0
KES1 082317Z 23003KT 05/M04 A3026 RMK A01 T00461036  RH  055%=      5-min Rain = 0
KES1 082318Z 23003KT 05/M04 A3026 RMK A01 T00451036  RH  055%=      5-min Rain = 0
KES1 082319Z 23003KT 05/M04 A3026 RMK A01 T00451036  RH  056%=      5-min Rain = 0
KES1 082320Z 23003KT 04/M04 A3026 RMK A01 T00441036  RH  056%=      5-min Rain = 0
KES1 082321Z 23003KT 04/M04 A3026 RMK A01 T00431037  RH  056%=      5-min Rain = 0
KES1 082322Z 22003KT 04/M04 A3026 RMK A01 T00431037  RH  056%=      5-min Rain = 0
KES1 082323Z 22003KT 04/M04 A3026 RMK A01 T00421037  RH  057%=      5-min Rain = 0
KES1 082324Z 22003KT 04/M04 A3026 RMK A01 T00411037  RH  057%=      5-min Rain = 0
KES1 082325Z 22003KT 04/M04 A3026 RMK A01 T00411037  RH  057%=      5-min Rain = 0
KES1 082326Z 22003KT 04/M04 A3026 RMK A01 T00401038  RH  057%=      5-min Rain = 0
KES1 082327Z 21003KT 04/M04 A3026 RMK A01 T00401038  RH  057%=      5-min Rain = 0
KES1 082328Z 21003KT 04/M04 A3026 RMK A01 T00391039  RH  057%=      5-min Rain = 0
KES1 082329Z 21003KT 04/M04 A3026 RMK A01 T00391039  RH  057%=      5-min Rain = 0
KES1 082330Z 21003KT 04/M04 A3026 RMK A01 T00391039  RH  057%=      5-min Rain = 0
KES1 082331Z 21003KT 04/M04 A3026 RMK A01 T00391039  RH  057%=      5-min Rain = 0
KES1 082332Z 21003KT 04/M04 A3026 RMK A01 T00391040  RH  056%=      5-min Rain = 0
KES1 082333Z 21003KT 04/M04 A3026 RMK A01 T00391040  RH  056%=      5-min Rain = 0
KES1 082334Z 21003KT 04/M04 A3026 RMK A01 T00391041  RH  056%=      5-min Rain = 0
KES1 082335Z 21003KT 04/M04 A3026 RMK A01 T00381041  RH  056%=      5-min Rain = 0
KES1 082336Z 21003KT 04/M04 A3026 RMK A01 T00381041  RH  056%=      5-min Rain = 0
KES1 082337Z 21004KT 04/M04 A3026 RMK A01 T00371041  RH  057%=      5-min Rain = 0
KES1 082338Z 21004KT 04/M04 A3026 RMK A01 T00371041  RH  057%=      5-min Rain = 0
KES1 082339Z 21003KT 04/M04 A3027 RMK A01 T00371041  RH  057%=      5-min Rain = 0
KES1 082340Z 21003KT 04/M04 A3027 RMK A01 T00361041  RH  057%=      5-min Rain = 0
KES1 082341Z 21004KT 04/M04 A3027 RMK A01 T00361041  RH  057%=      5-min Rain = 0
KES1 082342Z 21004KT 04/M04 A3027 RMK A01 T00361041  RH  057%=      5-min Rain = 0
KES1 082343Z 21004KT 04/M04 A3027 RMK A01 T00361041  RH  057%=      5-min Rain = 0
KES1 082344Z 21004KT 04/M04 A3027 RMK A01 T00351041  RH  058%=      5-min Rain = 0
KES1 082345Z 21004KT 04/M04 A3027 RMK A01 T00351041  RH  058%=      5-min Rain = 0
KES1 082346Z 21004KT 03/M04 A3027 RMK A01 T00341041  RH  058%=      5-min Rain = 0
KES1 082347Z 21004KT 03/M04 A3027 RMK A01 T00341041  RH  058%=      5-min Rain = 0
KES1 082348Z 21004KT 03/M04 A3027 RMK A01 T00331042  RH  058%=      5-min Rain = 0
KES1 082349Z 21004KT 03/M04 A3027 RMK A01 T00331043  RH  057%=      5-min Rain = 0
KES1 082350Z 21004KT 03/M04 A3027 RMK A01 T00331043  RH  057%=      5-min Rain = 0
KES1 082351Z 21004KT 03/M04 A3027 RMK A01 T00331044  RH  057%=      5-min Rain = 0
KES1 082352Z 21004KT 03/M04 A3027 RMK A01 T00331044  RH  057%=      5-min Rain = 0
KES1 082353Z 21005KT 03/M05 A3027 RMK A01 T00331045  RH  057%=      5-min Rain = 0
KES1 082354Z 21005KT 03/M05 A3027 RMK A01 T00341045  RH  056%=      5-min Rain = 0
KES1 082355Z 21005KT 03/M05 A3027 RMK A01 T00341046  RH  056%=      5-min Rain = 0
KES1 082356Z 22005KT 03/M05 A3027 RMK A01 T00341045  RH  056%=      5-min Rain = 0
KES1 082357Z 22005KT 03/M05 A3027 RMK A01 T00331045  RH  057%=      5-min Rain = 0
KES1 082358Z 22005KT 03/M05 A3027 RMK A01 T00321045  RH  057%=      5-min Rain = 0
KES1 082359Z 22005KT 03/M05 A3027 RMK A01 T00311045  RH  057%=      5-min Rain = 0
KES1 090000Z 22005KT 03/M05 A3027 RMK A01 T00311045  RH  057%=      5-min Rain = 0
KES1 090001Z 22005KT 03/M05 A3027 RMK A01 T00301046  RH  057%=      5-min Rain = 0
KES1 090002Z 21005KT 03/M05 A3027 RMK A01 T00301046  RH  057%=      5-min Rain = 0
KES1 090003Z 21005KT 03/M05 A3027 RMK A01 T00301047  RH  057%=      5-min Rain = 0
KES1 090004Z 21004KT 03/M05 A3027 RMK A01 T00311047  RH  057%=      5-min Rain = 0
KES1 090005Z 21004KT 03/M05 A3027 RMK A01 T00301047  RH  057%=      5-min Rain = 0
KES1 090006Z 21004KT 03/M05 A3027 RMK A01 T00301048  RH  057%=      5-min Rain = 0
KES1 090007Z 21004KT 03/M05 A3027 RMK A01 T00291049  RH  057%=      5-min Rain = 0
KES1 090008Z 21004KT 03/M05 A3027 RMK A01 T00281048  RH  057%=      5-min Rain = 0
KES1 090009Z 21003KT 03/M05 A3027 RMK A01 T00271046  RH  059%=      5-min Rain = 0
KES1 090010Z 21004KT 03/M05 A3027 RMK A01 T00251046  RH  060%=      5-min Rain = 0
KES1 090011Z 20004KT 02/M05 A3027 RMK A01 T00231046  RH  060%=      5-min Rain = 0
KES1 090012Z 20004KT 02/M05 A3028 RMK A01 T00231047  RH  060%=      5-min Rain = 0
KES1 090013Z 20003KT 02/M05 A3028 RMK A01 T00221046  RH  061%=      5-min Rain = 0
KES1 090014Z 20003KT 02/M05 A3028 RMK A01 T00201045  RH  062%=      5-min Rain = 0
KES1 090015Z 20003KT 02/M05 A3028 RMK A01 T00181046  RH  062%=      5-min Rain = 0
KES1 090016Z 20004KT 02/M05 A3028 RMK A01 T00181048  RH  061%=      5-min Rain = 0
KES1 090017Z 20004KT 02/M05 A3028 RMK A01 T00201049  RH  060%=      5-min Rain = 0
KES1 090018Z 20004KT 02/M05 A3028 RMK A01 T00211049  RH  060%=      5-min Rain = 0
KES1 090019Z 20003KT 02/M05 A3028 RMK A01 T00211051  RH  059%=      5-min Rain = 0
KES1 090020Z 20004KT 02/M05 A3028 RMK A01 T00231051  RH  058%=      5-min Rain = 0
KES1 090021Z 20003KT 02/M05 A3028 RMK A01 T00231051  RH  058%=      5-min Rain = 0
KES1 090022Z 19003KT 02/M05 A3028 RMK A01 T00231051  RH  058%=      5-min Rain = 0
KES1 090023Z 19003KT 02/M05 A3028 RMK A01 T00221049  RH  059%=      5-min Rain = 0
KES1 090024Z 19004KT 02/M05 A3028 RMK A01 T00201048  RH  061%=      5-min Rain = 0
KES1 090025Z 19004KT 02/M05 A3028 RMK A01 T00181049  RH  061%=      5-min Rain = 0
KES1 090026Z 18004KT 02/M05 A3028 RMK A01 T00181049  RH  061%=      5-min Rain = 0
KES1 090027Z 18004KT 02/M05 A3028 RMK A01 T00191050  RH  060%=      5-min Rain = 0
KES1 090028Z 18004KT 02/M05 A3028 RMK A01 T00211050  RH  059%=      5-min Rain = 0
KES1 090029Z 18004KT 02/M05 A3028 RMK A01 T00221050  RH  059%=      5-min Rain = 0
KES1 090030Z 17004KT 02/M05 A3028 RMK A01 T00221048  RH  060%=      5-min Rain = 0
KES1 090031Z 15004KT 02/M05 A3028 RMK A01 T00181048  RH  061%=      5-min Rain = 0
KES1 090032Z 15005KT 02/M05 A3028 RMK A01 T00161047  RH  063%=      5-min Rain = 0
KES1 090033Z 15004KT 01/M05 A3028 RMK A01 T00141045  RH  065%=      5-min Rain = 0
KES1 090034Z 15004KT 01/M04 A3028 RMK A01 T00111043  RH  067%=      5-min Rain = 0
KES1 090035Z 15004KT 01/M04 A3028 RMK A01 T00101042  RH  068%=      5-min Rain = 0
KES1 090036Z 16005KT 01/M04 A3028 RMK A01 T00091041  RH  069%=      5-min Rain = 0
KES1 090037Z 16005KT 01/M04 A3028 RMK A01 T00091040  RH  070%=      5-min Rain = 0
KES1 090038Z 16005KT 01/M04 A3028 RMK A01 T00101039  RH  070%=      5-min Rain = 0
KES1 090039Z 17005KT 01/M04 A3028 RMK A01 T00091039  RH  070%=      5-min Rain = 0
KES1 090040Z 17004KT 01/M04 A3028 RMK A01 T00091039  RH  070%=      5-min Rain = 0
KES1 090041Z 17004KT 01/M04 A3028 RMK A01 T00091038  RH  070%=      5-min Rain = 0
KES1 090042Z 17004KT 01/M04 A3028 RMK A01 T00091039  RH  070%=      5-min Rain = 0
KES1 090043Z 17004KT 01/M04 A3028 RMK A01 T00111039  RH  070%=      5-min Rain = 0
KES1 090044Z 17004KT 01/M04 A3028 RMK A01 T00121038  RH  069%=      5-min Rain = 0
KES1 090045Z 18004KT 01/M04 A3028 RMK A01 T00141039  RH  068%=      5-min Rain = 0
KES1 090046Z 17004KT 02/M04 A3028 RMK A01 T00161040  RH  066%=      5-min Rain = 0
KES1 090047Z 16004KT 02/M04 A3028 RMK A01 T00181040  RH  065%=      5-min Rain = 0
KES1 090048Z 16004KT 02/M04 A3028 RMK A01 T00171039  RH  067%=      5-min Rain = 0
KES1 090049Z 15004KT 01/M04 A3028 RMK A01 T00141039  RH  068%=      5-min Rain = 0
KES1 090050Z 16004KT 01/M04 A3028 RMK A01 T00121039  RH  069%=      5-min Rain = 0
KES1 090051Z 16004KT 01/M04 A3028 RMK A01 T00121039  RH  069%=      5-min Rain = 0
KES1 090052Z 17004KT 01/M04 A3028 RMK A01 T00141038  RH  068%=      5-min Rain = 0
KES1 090053Z 17003KT 02/M04 A3028 RMK A01 T00161037  RH  068%=      5-min Rain = 0
KES1 090054Z 16003KT 02/M04 A3028 RMK A01 T00161037  RH  068%=      5-min Rain = 0
KES1 090055Z 16003KT 01/M04 A3028 RMK A01 T00131039  RH  068%=      5-min Rain = 0
KES1 090056Z 16003KT 01/M04 A3028 RMK A01 T00111039  RH  069%=      5-min Rain = 0
KES1 090057Z 16003KT 01/M04 A3028 RMK A01 T00101038  RH  070%=      5-min Rain = 0
KES1 090058Z 16003KT 01/M04 A3028 RMK A01 T00101038  RH  071%=      5-min Rain = 0
KES1 090059Z 16003KT 01/M04 A3028 RMK A01 T00101037  RH  071%=      5-min Rain = 0
KES1 090100Z 17003KT 01/M04 A3028 RMK A01 T00111035  RH  071%=      5-min Rain = 0
KES1 090101Z 18002KT 02/M03 A3028 RMK A01 T00151032  RH  071%=      5-min Rain = 0
KES1 090102Z 18002KT 02/M03 A3028 RMK A01 T00181031  RH  070%=      5-min Rain = 0
KES1 090103Z 18002KT 02/M03 A3028 RMK A01 T00191032  RH  069%=      5-min Rain = 0
KES1 090104Z 19002KT 02/M03 A3029 RMK A01 T00191033  RH  069%=      5-min Rain = 0
KES1 090105Z 19002KT 02/M03 A3029 RMK A01 T00181034  RH  069%=      5-min Rain = 0
KES1 090106Z 19002KT 02/M03 A3029 RMK A01 T00161034  RH  070%=      5-min Rain = 0
KES1 090107Z 19002KT 02/M03 A3029 RMK A01 T00151034  RH  070%=      5-min Rain = 0
KES1 090108Z 19002KT 01/M03 A3029 RMK A01 T00141034  RH  071%=      5-min Rain = 0
KES1 090109Z 19001KT 01/M03 A3029 RMK A01 T00131034  RH  071%=      5-min Rain = 0
KES1 090110Z 18002KT 01/M03 A3029 RMK A01 T00121033  RH  072%=      5-min Rain = 0
KES1 090111Z 18003KT 01/M04 A3029 RMK A01 T00121035  RH  071%=      5-min Rain = 0
KES1 090112Z 19003KT 01/M03 A3029 RMK A01 T00111034  RH  071%=      5-min Rain = 0
KES1 090113Z 18002KT 01/M03 A3029 RMK A01 T00121033  RH  072%=      5-min Rain = 0
KES1 090114Z 17002KT 01/M03 A3029 RMK A01 T00121034  RH  072%=      5-min Rain = 0
KES1 090115Z 17001KT 01/M04 A3029 RMK A01 T00111037  RH  070%=      5-min Rain = 0
KES1 090116Z 17000KT 01/M04 A3029 RMK A01 T00091036  RH  071%=      5-min Rain = 0
KES1 090117Z 17001KT 01/M04 A3029 RMK A01 T00081035  RH  073%=      5-min Rain = 0
KES1 090118Z 17001KT 01/M03 A3029 RMK A01 T00071033  RH  074%=      5-min Rain = 0
KES1 090119Z 18002KT 01/M03 A3029 RMK A01 T00071033  RH  075%=      5-min Rain = 0
KES1 090120Z 18002KT 01/M03 A3029 RMK A01 T00071033  RH  075%=      5-min Rain = 0
KES1 090121Z 18003KT 01/M03 A3029 RMK A01 T00071033  RH  075%=      5-min Rain = 0
KES1 090122Z 18003KT 01/M03 A3029 RMK A01 T00061033  RH  075%=      5-min Rain = 0
KES1 090123Z 18003KT 01/M03 A3029 RMK A01 T00061032  RH  076%=      5-min Rain = 0
KES1 090124Z 18003KT 01/M03 A3029 RMK A01 T00051033  RH  076%=      5-min Rain = 0
KES1 090125Z 17003KT 00/M03 A3029 RMK A01 T00041033  RH  076%=      5-min Rain = 0
KES1 090126Z 18004KT 00/M03 A3029 RMK A01 T00031033  RH  077%=      5-min Rain = 0
KES1 090127Z 18004KT 00/M03 A3029 RMK A01 T00021032  RH  078%=      5-min Rain = 0
KES1 090128Z 18004KT 00/M03 A3029 RMK A01 T00021031  RH  078%=      5-min Rain = 0
KES1 090129Z 19004KT 00/M03 A3029 RMK A01 T00031029  RH  079%=      5-min Rain = 0
KES1 090130Z 18004KT 01/M03 A3029 RMK A01 T00051028  RH  079%=      5-min Rain = 0
KES1 090131Z 19004KT 01/M03 A3029 RMK A01 T00061029  RH  078%=      5-min Rain = 0
KES1 090132Z 19004KT 01/M03 A3029 RMK A01 T00061029  RH  078%=      5-min Rain = 0
KES1 090133Z 20004KT 01/M03 A3029 RMK A01 T00061028  RH  078%=      5-min Rain = 0
KES1 090134Z 20004KT 01/M03 A3029 RMK A01 T00061027  RH  079%=      5-min Rain = 0
KES1 090135Z 20004KT 01/M03 A3029 RMK A01 T00071026  RH  079%=      5-min Rain = 0
KES1 090136Z 20004KT 01/M03 A3029 RMK A01 T00071026  RH  079%=      5-min Rain = 0
KES1 090137Z 20004KT 01/M03 A3029 RMK A01 T00081025  RH  078%=      5-min Rain = 0
KES1 090138Z 20003KT 01/M03 A3029 RMK A01 T00081026  RH  078%=      5-min Rain = 0
KES1 090139Z 21003KT 01/M03 A3029 RMK A01 T00071026  RH  078%=      5-min Rain = 0
KES1 090140Z 20002KT 01/M03 A3029 RMK A01 T00071027  RH  078%=      5-min Rain = 0
KES1 090141Z 20002KT 01/M03 A3029 RMK A01 T00061027  RH  078%=      5-min Rain = 0
KES1 090142Z 20002KT 01/M03 A3029 RMK A01 T00051028  RH  078%=      5-min Rain = 0
KES1 090143Z 20002KT 00/M03 A3029 RMK A01 T00041029  RH  079%=      5-min Rain = 0
KES1 090144Z 21002KT 00/M03 A3029 RMK A01 T00031028  RH  079%=      5-min Rain = 0
KES1 090145Z 20002KT 00/M03 A3029 RMK A01 T00031029  RH  080%=      5-min Rain = 0
KES1 090146Z 20002KT 00/M03 A303 RMK A01 T00031028  RH  080%=      5-min Rain = 0
KES1 090147Z 21002KT 00/M03 A303 RMK A01 T00031027  RH  080%=      5-min Rain = 0
KES1 090148Z 21002KT 00/M03 A303 RMK A01 T00031027  RH  080%=      5-min Rain = 0
KES1 090149Z 21002KT 00/M03 A303 RMK A01 T00041027  RH  080%=      5-min Rain = 0
KES1 090150Z 22002KT 01/M03 A303 RMK A01 T00051027  RH  079%=      5-min Rain = 0
KES1 090151Z 22002KT 01/M03 A303 RMK A01 T00051027  RH  079%=      5-min Rain = 0
KES1 090152Z 22002KT 01/M03 A303 RMK A01 T00061027  RH  078%=      5-min Rain = 0
KES1 090153Z 22002KT 01/M03 A303 RMK A01 T00051028  RH  078%=      5-min Rain = 0
KES1 090154Z 22003KT 01/M03 A303 RMK A01 T00051028  RH  079%=      5-min Rain = 0
KES1 090155Z 23004KT 00/M03 A303 RMK A01 T00041028  RH  079%=      5-min Rain = 0
KES1 090156Z 23003KT 00/M03 A303 RMK A01 T00041028  RH  079%=      5-min Rain = 0
KES1 090157Z 22003KT 00/M03 A303 RMK A01 T00041028  RH  079%=      5-min Rain = 0
KES1 090158Z 22003KT 00/M03 A303 RMK A01 T00041029  RH  079%=      5-min Rain = 0
KES1 090159Z 23003KT 00/M03 A303 RMK A01 T00021031  RH  078%=      5-min Rain = 0
KES1 090200Z 23003KT 00/M03 A303 RMK A01 T00011031  RH  079%=      5-min Rain = 0
KES1 090201Z 23003KT 00/03 A303 RMK A01 T00000-30  RH  080%=      5-min Rain = 0
KES1 090202Z 23002KT 00/03 A303 RMK A01 T00000-30  RH  080%=      5-min Rain = 0
KES1 090203Z 23003KT 00/03 A303 RMK A01 T00000-30  RH  080%=      5-min Rain = 0
KES1 090204Z 24002KT 00/03 A303 RMK A01 T00000-30  RH  080%=      5-min Rain = 0
KES1 090205Z 24002KT 00/M03 A303 RMK A01 T00011030  RH  080%=      5-min Rain = 0
KES1 090206Z 24002KT 00/M03 A303 RMK A01 T00021030  RH  079%=      5-min Rain = 0
KES1 090207Z 24002KT 00/M03 A303 RMK A01 T00031030  RH  078%=      5-min Rain = 0
KES1 090208Z 23002KT 00/M03 A303 RMK A01 T00031030  RH  078%=      5-min Rain = 0
KES1 090209Z 24002KT 00/M03 A303 RMK A01 T00031031  RH  078%=      5-min Rain = 0
KES1 090210Z 24002KT 00/M03 A303 RMK A01 T00031031  RH  078%=      5-min Rain = 0
KES1 090211Z 25002KT 00/M03 A303 RMK A01 T00031031  RH  078%=      5-min Rain = 0
KES1 090212Z 25002KT 00/M03 A303 RMK A01 T00031031  RH  078%=      5-min Rain = 0
KES1 090213Z 25003KT 00/M03 A303 RMK A01 T00031031  RH  077%=      5-min Rain = 0
KES1 090214Z 25003KT 00/M03 A303 RMK A01 T00041031  RH  077%=      5-min Rain = 0
KES1 090215Z 25003KT 00/M03 A3031 RMK A01 T00041031  RH  077%=      5-min Rain = 0
KES1 090216Z 24003KT 00/M03 A3031 RMK A01 T00031032  RH  077%=      5-min Rain = 0
KES1 090217Z 24002KT 00/M03 A3031 RMK A01 T00031031  RH  077%=      5-min Rain = 0
KES1 090218Z 24002KT 00/M03 A3031 RMK A01 T00031031  RH  078%=      5-min Rain = 0
KES1 090219Z 23002KT 00/M03 A3031 RMK A01 T00021032  RH  078%=      5-min Rain = 0
KES1 090220Z 23002KT 00/M03 A3031 RMK A01 T00021031  RH  078%=      5-min Rain = 0
KES1 090221Z 24002KT 00/M03 A3031 RMK A01 T00011032  RH  079%=      5-min Rain = 0
KES1 090222Z 24002KT 00/03 A3031 RMK A01 T00000-32  RH  079%=      5-min Rain = 0
KES1 090223Z 23002KT 00/03 A3031 RMK A01 T00-00-33  RH  079%=      5-min Rain = 0
KES1 090224Z 23002KT M00/M03 A303 RMK A01 T10011033  RH  079%=      5-min Rain = 0
KES1 090225Z 23001KT M00/M03 A303 RMK A01 T10021034  RH  079%=      5-min Rain = 0
KES1 090226Z 24001KT M00/M03 A303 RMK A01 T10021034  RH  079%=      5-min Rain = 0
KES1 090227Z 24001KT M00/M03 A303 RMK A01 T10031034  RH  079%=      5-min Rain = 0
KES1 090228Z 24001KT M00/M03 A303 RMK A01 T10031034  RH  080%=      5-min Rain = 0
KES1 090229Z 25001KT M00/M03 A303 RMK A01 T10031033  RH  080%=      5-min Rain = 0
KES1 090230Z 27001KT M00/M03 A303 RMK A01 T10031033  RH  080%=      5-min Rain = 0
KES1 090231Z 26001KT M00/M03 A303 RMK A01 T10041034  RH  080%=      5-min Rain = 0
KES1 090232Z 26001KT M00/M03 A303 RMK A01 T10041034  RH  080%=      5-min Rain = 0
KES1 090233Z 29001KT M01/M03 A303 RMK A01 T10051034  RH  080%=      5-min Rain = 0
KES1 090234Z 28001KT M01/M03 A303 RMK A01 T10051034  RH  081%=      5-min Rain = 0
KES1 090235Z 28001KT M01/M03 A3031 RMK A01 T10051034  RH  081%=      5-min Rain = 0
KES1 090236Z 28001KT M01/M03 A3031 RMK A01 T10051034  RH  080%=      5-min Rain = 0
KES1 090237Z 29002KT M01/M04 A3031 RMK A01 T10051035  RH  080%=      5-min Rain = 0
KES1 090238Z 28002KT M01/M03 A3031 RMK A01 T10051034  RH  080%=      5-min Rain = 0
KES1 090239Z 28002KT M00/M03 A3031 RMK A01 T10041034  RH  080%=      5-min Rain = 0
KES1 090240Z 28001KT M00/M03 A3031 RMK A01 T10041034  RH  080%=      5-min Rain = 0
KES1 090241Z 28002KT M00/M03 A3031 RMK A01 T10041034  RH  080%=      5-min Rain = 0
KES1 090242Z 27001KT M00/M03 A3031 RMK A01 T10041034  RH  080%=      5-min Rain = 0
KES1 090243Z 27001KT M01/M04 A3031 RMK A01 T10051035  RH  080%=      5-min Rain = 0
KES1 090244Z 28001KT M01/M04 A3031 RMK A01 T10051035  RH  080%=      5-min Rain = 0
KES1 090245Z 29001KT M01/M04 A3031 RMK A01 T10061035  RH  080%=      5-min Rain = 0
KES1 090246Z 28001KT M01/M04 A3031 RMK A01 T10051035  RH  080%=      5-min Rain = 0
KES1 090247Z 28001KT M01/M04 A3031 RMK A01 T10061036  RH  080%=      5-min Rain = 0
KES1 090248Z 28001KT M01/M04 A3031 RMK A01 T10071036  RH  080%=      5-min Rain = 0
KES1 090249Z 28001KT M01/M04 A3031 RMK A01 T10081037  RH  081%=      5-min Rain = 0
KES1 090250Z 30001KT M01/M04 A3031 RMK A01 T10081037  RH  081%=      5-min Rain = 0
KES1 090251Z 30001KT M01/M04 A3031 RMK A01 T10091038  RH  081%=      5-min Rain = 0
KES1 090252Z 29002KT M01/M04 A3031 RMK A01 T10091038  RH  081%=      5-min Rain = 0
KES1 090253Z 29002KT M01/M04 A3031 RMK A01 T10091038  RH  081%=      5-min Rain = 0
KES1 090254Z 29002KT M01/M04 A3031 RMK A01 T10091038  RH  080%=      5-min Rain = 0
KES1 090255Z 30002KT M01/M04 A3031 RMK A01 T10081039  RH  080%=      5-min Rain = 0
KES1 090256Z 30002KT M01/M04 A3031 RMK A01 T10081038  RH  080%=      5-min Rain = 0
KES1 090257Z 29002KT M01/M04 A3031 RMK A01 T10071039  RH  079%=      5-min Rain = 0
KES1 090258Z 29002KT M01/M04 A3031 RMK A01 T10071039  RH  079%=      5-min Rain = 0
KES1 090259Z 29002KT M01/M04 A3031 RMK A01 T10071039  RH  079%=      5-min Rain = 0
KES1 090300Z 29002KT M01/M04 A3031 RMK A01 T10071039  RH  079%=      5-min Rain = 0
KES1 090301Z 28002KT M01/M04 A3031 RMK A01 T10071039  RH  079%=      5-min Rain = 0
KES1 090302Z 28002KT M01/M04 A3031 RMK A01 T10071039  RH  079%=      5-min Rain = 0
KES1 090303Z 29002KT M01/M04 A3031 RMK A01 T10071039  RH  079%=      5-min Rain = 0
KES1 090304Z 29002KT M01/M04 A3031 RMK A01 T10071040  RH  079%=      5-min Rain = 0
KES1 090305Z 30002KT M01/M04 A3031 RMK A01 T10071040  RH  079%=      5-min Rain = 0
KES1 090306Z 30002KT M01/M04 A3031 RMK A01 T10071040  RH  079%=      5-min Rain = 0
KES1 090307Z 30002KT M01/M04 A3031 RMK A01 T10081040  RH  079%=      5-min Rain = 0
KES1 090308Z 30002KT M01/M04 A3031 RMK A01 T10071040  RH  079%=      5-min Rain = 0
KES1 090309Z 31003KT M01/M04 A3031 RMK A01 T10081040  RH  079%=      5-min Rain = 0
KES1 090310Z 31003KT M01/M04 A3031 RMK A01 T10081040  RH  079%=      5-min Rain = 0
KES1 090311Z 31003KT M01/M04 A3031 RMK A01 T10081040  RH  079%=      5-min Rain = 0
KES1 090312Z 30002KT M01/M04 A3031 RMK A01 T10081041  RH  078%=      5-min Rain = 0
KES1 090313Z 30003KT M01/M04 A3031 RMK A01 T10081041  RH  078%=      5-min Rain = 0
KES1 090314Z 30003KT M01/M04 A3031 RMK A01 T10081041  RH  078%=      5-min Rain = 0
KES1 090315Z 30002KT M01/M04 A3031 RMK A01 T10081041  RH  078%=      5-min Rain = 0
KES1 090316Z 30002KT M01/M04 A3031 RMK A01 T10081041  RH  078%=      5-min Rain = 0
KES1 090317Z 30002KT M01/M04 A3031 RMK A01 T10081041  RH  078%=      5-min Rain = 0
KES1 090318Z 30002KT M01/M04 A3031 RMK A01 T10071041  RH  078%=      5-min Rain = 0
KES1 090319Z 30002KT M01/M04 A3031 RMK A01 T10071042  RH  078%=      5-min Rain = 0
KES1 090320Z 30002KT M01/M04 A3031 RMK A01 T10081042  RH  078%=      5-min Rain = 0
KES1 090321Z 30002KT M01/M04 A3031 RMK A01 T10081042  RH  078%=      5-min Rain = 0
KES1 090322Z 29003KT M01/M04 A3031 RMK A01 T10081042  RH  078%=      5-min Rain = 0
KES1 090323Z 29003KT M01/M04 A3031 RMK A01 T10081043  RH  078%=      5-min Rain = 0
KES1 090324Z 29003KT M01/M04 A3031 RMK A01 T10081043  RH  078%=      5-min Rain = 0
KES1 090325Z 29002KT M01/M04 A3031 RMK A01 T10091043  RH  077%=      5-min Rain = 0
KES1 090326Z 29002KT M01/M04 A3031 RMK A01 T10091044  RH  077%=      5-min Rain = 0
KES1 090327Z 29003KT M01/M05 A3031 RMK A01 T10091045  RH  077%=      5-min Rain = 0
KES1 090328Z 29002KT M01/M05 A3031 RMK A01 T10091045  RH  077%=      5-min Rain = 0
KES1 090329Z 29003KT M01/M05 A3031 RMK A01 T10091045  RH  077%=      5-min Rain = 0
KES1 090330Z 29002KT M01/M05 A3031 RMK A01 T10091045  RH  076%=      5-min Rain = 0
KES1 090331Z 29002KT M01/M05 A3031 RMK A01 T10081045  RH  076%=      5-min Rain = 0
KES1 090332Z 29002KT M01/M05 A3031 RMK A01 T10081046  RH  076%=      5-min Rain = 0
KES1 090333Z 29002KT M01/M05 A3031 RMK A01 T10081046  RH  075%=      5-min Rain = 0
KES1 090334Z 29002KT M01/M05 A3031 RMK A01 T10081046  RH  075%=      5-min Rain = 0
KES1 090335Z 29002KT M01/M05 A3031 RMK A01 T10081046  RH  075%=      5-min Rain = 0
KES1 090336Z 29002KT M01/M05 A3031 RMK A01 T10081047  RH  075%=      5-min Rain = 0
KES1 090337Z 29003KT M01/M05 A3031 RMK A01 T10081047  RH  075%=      5-min Rain = 0
KES1 090338Z 28003KT M01/M05 A3031 RMK A01 T10071047  RH  074%=      5-min Rain = 0
KES1 090339Z 28003KT M01/M05 A3031 RMK A01 T10071048  RH  074%=      5-min Rain = 0
KES1 090340Z 28003KT M01/M05 A3031 RMK A01 T10071048  RH  074%=      5-min Rain = 0
KES1 090341Z 28002KT M01/M05 A3031 RMK A01 T10071048  RH  074%=      5-min Rain = 0
KES1 090342Z 28002KT M01/M05 A3031 RMK A01 T10071048  RH  074%=      5-min Rain = 0
KES1 090343Z 28003KT M01/M05 A3031 RMK A01 T10071048  RH  074%=      5-min Rain = 0
KES1 090344Z 28003KT M01/M05 A3031 RMK A01 T10071048  RH  074%=      5-min Rain = 0
KES1 090345Z 28003KT M01/M05 A3031 RMK A01 T10081048  RH  074%=      5-min Rain = 0
KES1 090346Z 29003KT M01/M05 A3031 RMK A01 T10081048  RH  074%=      5-min Rain = 0
KES1 090347Z 29003KT M01/M05 A3031 RMK A01 T10081048  RH  074%=      5-min Rain = 0
KES1 090348Z 29003KT M01/M05 A3031 RMK A01 T10091048  RH  075%=      5-min Rain = 0
KES1 090349Z 29003KT M01/M05 A3031 RMK A01 T10091048  RH  075%=      5-min Rain = 0
KES1 090350Z 30003KT M01/M05 A3031 RMK A01 T10091049  RH  075%=      5-min Rain = 0
KES1 090351Z 29003KT M01/M05 A3031 RMK A01 T10091050  RH  074%=      5-min Rain = 0
KES1 090352Z 30003KT M01/M05 A3031 RMK A01 T10091050  RH  074%=      5-min Rain = 0
KES1 090353Z 30003KT M01/M05 A3031 RMK A01 T10101050  RH  074%=      5-min Rain = 0
KES1 090354Z 29002KT M01/M05 A3031 RMK A01 T10101050  RH  074%=      5-min Rain = 0
KES1 090355Z 29002KT M01/M05 A3031 RMK A01 T10111051  RH  074%=      5-min Rain = 0
KES1 090356Z 30002KT M01/M05 A3031 RMK A01 T10111051  RH  074%=      5-min Rain = 0
KES1 090357Z 30002KT M01/M05 A3031 RMK A01 T10121051  RH  075%=      5-min Rain = 0
KES1 090358Z 30001KT M01/M05 A3031 RMK A01 T10141052  RH  075%=      5-min Rain = 0
KES1 090359Z 31001KT M02/M05 A3031 RMK A01 T10151053  RH  075%=      5-min Rain = 0
KES1 090400Z 31002KT M02/M05 A3031 RMK A01 T10161053  RH  076%=      5-min Rain = 0
KES1 090401Z 31002KT M02/M05 A3031 RMK A01 T10171052  RH  077%=      5-min Rain = 0
KES1 090402Z 31002KT M02/M05 A3031 RMK A01 T10171053  RH  077%=      5-min Rain = 0
KES1 090403Z 32002KT M02/M06 A3031 RMK A01 T10171055  RH  076%=      5-min Rain = 0
KES1 090404Z 32002KT M02/M06 A3031 RMK A01 T10171055  RH  075%=      5-min Rain = 0
KES1 090405Z 32002KT M02/M06 A3031 RMK A01 T10171055  RH  075%=      5-min Rain = 0
KES1 090406Z 32003KT M02/M06 A3031 RMK A01 T10171057  RH  074%=      5-min Rain = 0
KES1 090407Z 32002KT M02/M06 A3031 RMK A01 T10171058  RH  074%=      5-min Rain = 0
KES1 090408Z 32003KT M02/M06 A3031 RMK A01 T10161057  RH  073%=      5-min Rain = 0
KES1 090409Z 32003KT M02/M06 A3031 RMK A01 T10161058  RH  073%=      5-min Rain = 0
KES1 090410Z 32003KT M02/M06 A3031 RMK A01 T10161058  RH  073%=      5-min Rain = 0
KES1 090411Z 32003KT M02/M06 A3032 RMK A01 T10161058  RH  073%=      5-min Rain = 0
KES1 090412Z 32002KT M02/M06 A3032 RMK A01 T10161059  RH  072%=      5-min Rain = 0
KES1 090413Z 32003KT M02/M06 A3032 RMK A01 T10151060  RH  072%=      5-min Rain = 0
KES1 090414Z 32002KT M02/M06 A3032 RMK A01 T10151059  RH  072%=      5-min Rain = 0
KES1 090415Z 31002KT M01/M06 A3032 RMK A01 T10141059  RH  071%=      5-min Rain = 0
KES1 090416Z 30003KT M01/M06 A3032 RMK A01 T10141059  RH  072%=      5-min Rain = 0
KES1 090417Z 31003KT M01/M06 A3032 RMK A01 T10141058  RH  072%=      5-min Rain = 0
KES1 090418Z 30004KT M01/M06 A3032 RMK A01 T10141058  RH  072%=      5-min Rain = 0
KES1 090419Z 30003KT M01/M06 A3032 RMK A01 T10141058  RH  072%=      5-min Rain = 0
KES1 090420Z 31004KT M01/M06 A3032 RMK A01 T10141057  RH  073%=      5-min Rain = 0
KES1 090421Z 30004KT M02/M06 A3032 RMK A01 T10151056  RH  073%=      5-min Rain = 0
KES1 090422Z 30003KT M02/M06 A3032 RMK A01 T10151057  RH  073%=      5-min Rain = 0
KES1 090423Z 30004KT M02/M06 A3032 RMK A01 T10161057  RH  074%=      5-min Rain = 0
KES1 090424Z 30003KT M02/M06 A3032 RMK A01 T10161057  RH  074%=      5-min Rain = 0
KES1 090425Z 30003KT M02/M06 A3032 RMK A01 T10161056  RH  074%=      5-min Rain = 0
KES1 090426Z 30003KT M02/M06 A3032 RMK A01 T10171056  RH  074%=      5-min Rain = 0
KES1 090427Z 29003KT M02/M06 A3032 RMK A01 T10171057  RH  074%=      5-min Rain = 0
KES1 090428Z 29003KT M02/M06 A3032 RMK A01 T10171057  RH  074%=      5-min Rain = 0
KES1 090429Z 30003KT M02/M06 A3032 RMK A01 T10181059  RH  074%=      5-min Rain = 0
KES1 090430Z 30003KT M02/M06 A3032 RMK A01 T10181059  RH  073%=      5-min Rain = 0
KES1 090431Z 30002KT M02/M06 A3032 RMK A01 T10181059  RH  073%=      5-min Rain = 0
KES1 090432Z 30003KT M02/M06 A3032 RMK A01 T10181059  RH  073%=      5-min Rain = 0
KES1 090433Z 30003KT M02/M06 A3032 RMK A01 T10191060  RH  073%=      5-min Rain = 0
KES1 090434Z 30002KT M02/M06 A3032 RMK A01 T10191061  RH  073%=      5-min Rain = 0
KES1 090435Z 30002KT M02/M06 A3032 RMK A01 T10191061  RH  073%=      5-min Rain = 0
KES1 090436Z 30001KT M02/M06 A3032 RMK A01 T10201061  RH  073%=      5-min Rain = 0
KES1 090437Z 30001KT M02/M06 A3032 RMK A01 T10201062  RH  073%=      5-min Rain = 0
KES1 090438Z 30001KT M02/M06 A3032 RMK A01 T10201061  RH  074%=      5-min Rain = 0
KES1 090439Z 31001KT M02/M06 A3032 RMK A01 T10211062  RH  074%=      5-min Rain = 0
KES1 090440Z 31002KT M02/M06 A3032 RMK A01 T10211062  RH  074%=      5-min Rain = 0
KES1 090441Z 30002KT M02/M06 A3032 RMK A01 T10211063  RH  073%=      5-min Rain = 0
KES1 090442Z 30002KT M02/M06 A3032 RMK A01 T10211063  RH  073%=      5-min Rain = 0
KES1 090443Z 31002KT M02/M06 A3032 RMK A01 T10211063  RH  073%=      5-min Rain = 0
KES1 090444Z 30002KT M02/M06 A3032 RMK A01 T10211063  RH  073%=      5-min Rain = 0
KES1 090445Z 30002KT M02/M06 A3032 RMK A01 T10211064  RH  073%=      5-min Rain = 0
KES1 090446Z 30002KT M02/M06 A3032 RMK A01 T10211064  RH  073%=      5-min Rain = 0
KES1 090447Z 30002KT M02/M07 A3032 RMK A01 T10221065  RH  072%=      5-min Rain = 0
KES1 090448Z 29002KT M02/M07 A3032 RMK A01 T10221066  RH  072%=      5-min Rain = 0
KES1 090449Z 29001KT M02/M07 A3032 RMK A01 T10221066  RH  072%=      5-min Rain = 0
KES1 090450Z 29002KT M02/M06 A3032 RMK A01 T10221064  RH  073%=      5-min Rain = 0
KES1 090451Z 29002KT M02/M06 A3032 RMK A01 T10231064  RH  073%=      5-min Rain = 0
KES1 090452Z 29002KT M02/M06 A3032 RMK A01 T10231064  RH  073%=      5-min Rain = 0
KES1 090453Z 29002KT M02/M07 A3032 RMK A01 T10231065  RH  073%=      5-min Rain = 0
KES1 090454Z 29002KT M02/M07 A3032 RMK A01 T10221066  RH  072%=      5-min Rain = 0
KES1 090455Z 29002KT M02/M07 A3032 RMK A01 T10211067  RH  071%=      5-min Rain = 0
KES1 090456Z 29003KT M02/M07 A3032 RMK A01 T10201066  RH  070%=      5-min Rain = 0
KES1 090457Z 29003KT M02/M07 A3032 RMK A01 T10191067  RH  070%=      5-min Rain = 0
KES1 090458Z 28003KT M02/M07 A3032 RMK A01 T10181067  RH  069%=      5-min Rain = 0
KES1 090459Z 29003KT M02/M07 A3032 RMK A01 T10171068  RH  068%=      5-min Rain = 0
KES1 090500Z 29003KT M02/M07 A3033 RMK A01 T10161068  RH  068%=      5-min Rain = 0
KES1 090501Z 29003KT M02/M07 A3033 RMK A01 T10161070  RH  067%=      5-min Rain = 0
KES1 090502Z 29003KT M02/M07 A3033 RMK A01 T10151071  RH  066%=      5-min Rain = 0
KES1 090503Z 29003KT M01/M07 A3033 RMK A01 T10141071  RH  065%=      5-min Rain = 0
KES1 090504Z 29003KT M01/M07 A3033 RMK A01 T10141071  RH  065%=      5-min Rain = 0
KES1 090505Z 29003KT M01/M07 A3033 RMK A01 T10141071  RH  065%=      5-min Rain = 0
KES1 090506Z 28002KT M01/M07 A3033 RMK A01 T10141071  RH  065%=      5-min Rain = 0
KES1 090507Z 28003KT M02/M07 A3033 RMK A01 T10151070  RH  066%=      5-min Rain = 0
KES1 090508Z 28003KT M02/M07 A3033 RMK A01 T10161070  RH  067%=      5-min Rain = 0
KES1 090509Z 28002KT M02/M07 A3033 RMK A01 T10161069  RH  067%=      5-min Rain = 0
KES1 090510Z 28003KT M02/M07 A3033 RMK A01 T10171069  RH  068%=      5-min Rain = 0
KES1 090511Z 28002KT M02/M07 A3033 RMK A01 T10181069  RH  068%=      5-min Rain = 0
KES1 090512Z 28002KT M02/M07 A3033 RMK A01 T10181068  RH  069%=      5-min Rain = 0
KES1 090513Z 28002KT M02/M07 A3033 RMK A01 T10181068  RH  069%=      5-min Rain = 0
KES1 090514Z 28002KT M02/M07 A3033 RMK A01 T10191067  RH  069%=      5-min Rain = 0
KES1 090515Z 27002KT M02/M07 A3033 RMK A01 T10191067  RH  070%=      5-min Rain = 0
KES1 090516Z 27002KT M02/M07 A3033 RMK A01 T10191066  RH  070%=      5-min Rain = 0
KES1 090517Z 27002KT M02/M07 A3033 RMK A01 T10201066  RH  071%=      5-min Rain = 0
KES1 090518Z 26002KT M02/M07 A3033 RMK A01 T10201066  RH  071%=      5-min Rain = 0
KES1 090519Z 26002KT M02/M07 A3033 RMK A01 T10211066  RH  072%=      5-min Rain = 0
KES1 090520Z 26002KT M02/M07 A3033 RMK A01 T10221066  RH  072%=      5-min Rain = 0
KES1 090521Z 26002KT M02/M07 A3033 RMK A01 T10221066  RH  072%=      5-min Rain = 0
KES1 090522Z 27002KT M02/M07 A3033 RMK A01 T10231067  RH  071%=      5-min Rain = 0
KES1 090523Z 26002KT M02/M07 A3033 RMK A01 T10231068  RH  071%=      5-min Rain = 0
KES1 090524Z 27002KT M02/M07 A3033 RMK A01 T10231068  RH  071%=      5-min Rain = 0
KES1 090525Z 26002KT M02/M07 A3033 RMK A01 T10231069  RH  071%=      5-min Rain = 0
KES1 090526Z 26003KT M02/M07 A3033 RMK A01 T10221069  RH  070%=      5-min Rain = 0
KES1 090527Z 26002KT M02/M07 A3033 RMK A01 T10221069  RH  070%=      5-min Rain = 0
KES1 090528Z 27002KT M02/M07 A3033 RMK A01 T10211068  RH  070%=      5-min Rain = 0
KES1 090529Z 28002KT M02/M07 A3033 RMK A01 T10201069  RH  069%=      5-min Rain = 0
KES1 090530Z 27002KT M02/M07 A3033 RMK A01 T10201069  RH  069%=      5-min Rain = 0
KES1 090531Z 28002KT M02/M07 A3033 RMK A01 T10201069  RH  069%=      5-min Rain = 0
KES1 090532Z 28002KT M02/M07 A3033 RMK A01 T10201069  RH  069%=      5-min Rain = 0
KES1 090533Z 27002KT M02/M07 A3033 RMK A01 T10201070  RH  069%=      5-min Rain = 0
KES1 090534Z 28002KT M02/M07 A3033 RMK A01 T10201069  RH  069%=      5-min Rain = 0
KES1 090535Z 28002KT M02/M07 A3033 RMK A01 T10201069  RH  069%=      5-min Rain = 0
KES1 090536Z 27002KT M02/M07 A3033 RMK A01 T10201069  RH  069%=      5-min Rain = 0
KES1 090537Z 27002KT M02/M07 A3033 RMK A01 T10201070  RH  069%=      5-min Rain = 0
KES1 090538Z 27002KT M02/M07 A3033 RMK A01 T10201072  RH  068%=      5-min Rain = 0
KES1 090539Z 26002KT M02/M07 A3033 RMK A01 T10201072  RH  068%=      5-min Rain = 0
KES1 090540Z 26002KT M02/M07 A3033 RMK A01 T10201072  RH  068%=      5-min Rain = 0
KES1 090541Z 26003KT M02/M07 A3033 RMK A01 T10201072  RH  068%=      5-min Rain = 0
KES1 090542Z 27003KT M02/M07 A3033 RMK A01 T10201071  RH  068%=      5-min Rain = 0
KES1 090543Z 26003KT M02/M07 A3033 RMK A01 T10211072  RH  068%=      5-min Rain = 0
KES1 090544Z 26003KT M02/M07 A3033 RMK A01 T10211072  RH  068%=      5-min Rain = 0
KES1 090545Z 27003KT M02/M07 A3033 RMK A01 T10221071  RH  069%=      5-min Rain = 0
KES1 090546Z 27003KT M02/M07 A3034 RMK A01 T10231071  RH  070%=      5-min Rain = 0
KES1 090547Z 27004KT M02/M07 A3034 RMK A01 T10231070  RH  070%=      5-min Rain = 0
KES1 090548Z 27004KT M02/M07 A3034 RMK A01 T10241071  RH  070%=      5-min Rain = 0
KES1 090549Z 27004KT M02/M07 A3034 RMK A01 T10241071  RH  070%=      5-min Rain = 0
KES1 090550Z 27004KT M03/M07 A3034 RMK A01 T10251071  RH  070%=      5-min Rain = 0
KES1 090551Z 28004KT M03/M07 A3034 RMK A01 T10251071  RH  071%=      5-min Rain = 0
KES1 090552Z 28004KT M03/M07 A3034 RMK A01 T10261072  RH  071%=      5-min Rain = 0
KES1 090553Z 28004KT M03/M07 A3034 RMK A01 T10261072  RH  070%=      5-min Rain = 0
KES1 090554Z 28004KT M03/M07 A3034 RMK A01 T10261073  RH  070%=      5-min Rain = 0
KES1 090555Z 29004KT M03/M07 A3034 RMK A01 T10261073  RH  070%=      5-min Rain = 0
KES1 090556Z 28004KT M03/M07 A3034 RMK A01 T10251073  RH  070%=      5-min Rain = 0
KES1 090557Z 29005KT M03/M07 A3034 RMK A01 T10261073  RH  070%=      5-min Rain = 0
KES1 090558Z 29005KT M03/M07 A3034 RMK A01 T10261074  RH  070%=      5-min Rain = 0
KES1 090559Z 29005KT M03/M07 A3034 RMK A01 T10261074  RH  070%=      5-min Rain = 0

Page generated in 0.1407 seconds.